| time (UTC) | temp C | wind direction | speed KPH | gust KPH | rain 1hr cm | rain 24hr cm | rain mn cm | humidity % | barometer mb |
| 20260504205027 | 22 | 125 | 4.8 | 20.9 | 0.00 | 0.03 | 0.03 | 30 | 1004.1 |
| 20260504204927 | 22 | 318 | 4.8 | 17.7 | 0.00 | 0.03 | 0.03 | 31 | 1004.0 |
| 20260504204827 | 22 | 180 | 4.8 | 17.7 | 0.00 | 0.03 | 0.03 | 31 | 1004.0 |
| 20260504204728 | 22 | 43 | 3.2 | 17.7 | 0.00 | 0.03 | 0.03 | 31 | 1004.0 |
| 20260504204654 | 21 | 309 | 4.8 | 17.7 | 0.00 | 0.03 | 0.03 | 32 | 1003.8 |
| 20260504204641 | 21 | 222 | 3.2 | 17.7 | 0.00 | 0.03 | 0.03 | 33 | 1003.9 |
| 20260504204421 | 21 | 142 | 4.8 | 17.7 | 0.00 | 0.03 | 0.03 | 31 | 1004.0 |
| 20260504204353 | 21 | 294 | 3.2 | 14.5 | 0.00 | 0.03 | 0.03 | 32 | 1004.0 |
| 20260504204322 | 21 | 153 | 3.2 | 16.1 | 0.00 | 0.03 | 0.03 | 32 | 1004.0 |
| 20260504204246 | 21 | 243 | 3.2 | 16.1 | 0.00 | 0.03 | 0.03 | 31 | 1004.0 |
| 20260504204229 | 21 | 294 | 3.2 | 14.5 | 0.00 | 0.03 | 0.03 | 32 | 1004.0 |
| 20260504204040 | 21 | 252 | 3.2 | 14.5 | 0.00 | 0.03 | 0.03 | 32 | 1003.9 |
| 20260504203917 | 21 | 153 | 3.2 | 14.5 | 0.00 | 0.03 | 0.03 | 32 | 1004.0 |
| 20260504203905 | 21 | 197 | 3.2 | 14.5 | 0.00 | 0.03 | 0.03 | 32 | 1003.9 |
| 20260504203853 | 21 | 225 | 3.2 | 14.5 | 0.00 | 0.03 | 0.03 | 32 | 1003.9 |
| 20260504203722 | 21 | 197 | 3.2 | 14.5 | 0.00 | 0.03 | 0.03 | 32 | 1003.9 |
| 20260504203509 | 21 | 72 | 3.2 | 14.5 | 0.00 | 0.03 | 0.03 | 32 | 1003.9 |
| 20260504203452 | 21 | 117 | 3.2 | 14.5 | 0.00 | 0.03 | 0.03 | 32 | 1003.9 |
| 20260504203326 | 21 | 172 | 4.8 | 14.5 | 0.00 | 0.03 | 0.03 | 32 | 1003.9 |
| 20260504203110 | 21 | 274 | 4.8 | 14.5 | 0.00 | 0.03 | 0.03 | 32 | 1003.9 |
| 20260504203003 | 21 | 146 | 4.8 | 14.5 | 0.00 | 0.03 | 0.03 | 32 | 1003.9 |
| 20260504202902 | 21 | 316 | 4.8 | 14.5 | 0.00 | 0.03 | 0.03 | 32 | 1004.0 |
| 20260504202803 | 21 | 323 | 4.8 | 17.7 | 0.00 | 0.03 | 0.03 | 33 | 1004.0 |
| 20260504202703 | 21 | 294 | 6.4 | 17.7 | 0.00 | 0.03 | 0.03 | 32 | 1004.1 |
| 20260504202603 | 21 | 8 | 6.4 | 17.7 | 0.00 | 0.03 | 0.03 | 32 | 1004.0 |
| 20260504202501 | 21 | 104 | 4.8 | 17.7 | 0.00 | 0.03 | 0.03 | 31 | 1004.0 |
| 20260504202403 | 21 | 267 | 6.4 | 17.7 | 0.00 | 0.03 | 0.03 | 31 | 1004.0 |
| 20260504202304 | 21 | 156 | 6.4 | 17.7 | 0.00 | 0.03 | 0.03 | 31 | 1004.0 |
| 20260504202159 | 21 | 136 | 6.4 | 17.7 | 0.00 | 0.03 | 0.03 | 31 | 1004.0 |
| 20260504202100 | 21 | 281 | 6.4 | 17.7 | 0.00 | 0.03 | 0.03 | 31 | 1004.0 |
| 20260504202022 | 21 | 271 | 6.4 | 17.7 | 0.00 | 0.03 | 0.03 | 31 | 1004.1 |
| 20260504202012 | 21 | 271 | 6.4 | 17.7 | 0.00 | 0.03 | 0.03 | 31 | 1004.1 |
| 20260504201756 | 21 | 262 | 6.4 | 17.7 | 0.00 | 0.03 | 0.03 | 31 | 1004.0 |
| 20260504201653 | 21 | 158 | 6.4 | 17.7 | 0.00 | 0.03 | 0.03 | 31 | 1004.1 |
| 20260504201554 | 21 | 276 | 6.4 | 17.7 | 0.00 | 0.03 | 0.03 | 31 | 1004.0 |
| 20260504201511 | 21 | 132 | 6.4 | 17.7 | 0.00 | 0.03 | 0.03 | 30 | 1004.0 |
| 20260504201502 | 21 | 184 | 6.4 | 17.7 | 0.00 | 0.03 | 0.03 | 30 | 1003.9 |
| 20260504201245 | 21 | 181 | 4.8 | 16.1 | 0.00 | 0.03 | 0.03 | 30 | 1004.0 |
| 20260504201146 | 21 | 103 | 4.8 | 16.1 | 0.00 | 0.03 | 0.03 | 30 | 1004.0 |
| 20260504201047 | 22 | 327 | 6.4 | 16.1 | 0.00 | 0.03 | 0.03 | 31 | 1004.1 |
| 20260504200939 | 22 | 262 | 6.4 | 16.1 | 0.00 | 0.03 | 0.03 | 31 | 1004.0 |
| 20260504200842 | 22 | 60 | 6.4 | 16.1 | 0.00 | 0.03 | 0.03 | 30 | 1004.0 |
| 20260504200836 | 22 | 65 | 6.4 | 25.7 | 0.00 | 0.03 | 0.03 | 31 | 1004.0 |
| 20260504200831 | 22 | 177 | 6.4 | 25.7 | 0.00 | 0.03 | 0.03 | 32 | 1004.0 |
| 20260504200817 | 22 | 271 | 6.4 | 25.7 | 0.00 | 0.03 | 0.03 | 31 | 1004.0 |
| 20260504200645 | 22 | 177 | 6.4 | 25.7 | 0.00 | 0.03 | 0.03 | 32 | 1004.0 |
| 20260504200433 | 22 | 249 | 6.4 | 25.7 | 0.00 | 0.03 | 0.03 | 31 | 1004.0 |
| 20260504200333 | 22 | 288 | 6.4 | 25.7 | 0.00 | 0.03 | 0.03 | 30 | 1004.0 |
| 20260504200233 | 22 | 315 | 6.4 | 25.7 | 0.00 | 0.03 | 0.03 | 31 | 1003.9 |
| 20260504200135 | 22 | 128 | 6.4 | 25.7 | 0.00 | 0.03 | 0.03 | 31 | 1004.0 |
| 20260504200034 | 22 | 291 | 6.4 | 25.7 | 0.00 | 0.03 | 0.03 | 31 | 1004.0 |
| 20260504195926 | 22 | 353 | 6.4 | 25.7 | 0.00 | 0.03 | 0.03 | 31 | 1004.0 |
| 20260504195852 | 22 | 153 | 4.8 | 24.1 | 0.00 | 0.03 | 0.03 | 30 | 1003.9 |
| 20260504195842 | 22 | 135 | 4.8 | 25.7 | 0.00 | 0.03 | 0.03 | 31 | 1004.1 |
| 20260504195659 | 22 | 212 | 4.8 | 16.1 | 0.00 | 0.03 | 0.03 | 31 | 1004.2 |
| 20260504195647 | 22 | 89 | 4.8 | 16.1 | 0.00 | 0.03 | 0.03 | 30 | 1004.1 |
| 20260504195527 | 22 | 212 | 4.8 | 16.1 | 0.00 | 0.03 | 0.03 | 31 | 1004.2 |
| 20260504195420 | 22 | 140 | 4.8 | 16.1 | 0.00 | 0.03 | 0.03 | 31 | 1004.1 |
| 20260504195319 | 22 | 263 | 4.8 | 16.1 | 0.00 | 0.03 | 0.03 | 32 | 1004.1 |
| 20260504195241 | 22 | 193 | 4.8 | 16.1 | 0.00 | 0.03 | 0.03 | 30 | 1004.1 |
| 20260504195219 | 22 | 83 | 4.8 | 16.1 | 0.00 | 0.03 | 0.03 | 31 | 1004.1 |
| 20260504195141 | 22 | 210 | 4.8 | 16.1 | 0.00 | 0.03 | 0.03 | 31 | 1004.0 |
| 20260504195126 | 22 | 193 | 4.8 | 16.1 | 0.00 | 0.03 | 0.03 | 30 | 1004.1 |
| 20260504194916 | 22 | 109 | 4.8 | 22.5 | 0.00 | 0.03 | 0.03 | 31 | 1004.1 |
| 20260504194815 | 22 | 279 | 6.4 | 22.5 | 0.00 | 0.03 | 0.03 | 32 | 1004.2 |
| 20260504194715 | 22 | 51 | 6.4 | 22.5 | 0.00 | 0.03 | 0.03 | 31 | 1004.1 |
| 20260504194614 | 22 | 133 | 6.4 | 22.5 | 0.00 | 0.03 | 0.03 | 31 | 1004.1 |
| 20260504194515 | 22 | 288 | 6.4 | 22.5 | 0.00 | 0.03 | 0.03 | 30 | 1004.2 |
| 20260504194407 | 22 | 300 | 6.4 | 22.5 | 0.00 | 0.03 | 0.03 | 30 | 1004.4 |
| 20260504194306 | 22 | 280 | 6.4 | 22.5 | 0.00 | 0.03 | 0.03 | 31 | 1004.3 |
| 20260504194208 | 22 | 42 | 4.8 | 22.5 | 0.00 | 0.03 | 0.03 | 31 | 1004.1 |
| 20260504194107 | 22 | 186 | 4.8 | 22.5 | 0.00 | 0.03 | 0.03 | 30 | 1004.1 |
| 20260504194007 | 22 | 179 | 4.8 | 22.5 | 0.00 | 0.03 | 0.03 | 31 | 1004.3 |
| 20260504193901 | 22 | 98 | 3.2 | 16.1 | 0.00 | 0.03 | 0.03 | 30 | 1004.0 |
| 20260504193801 | 22 | 100 | 3.2 | 14.5 | 0.00 | 0.03 | 0.03 | 31 | 1004.0 |
| 20260504193701 | 22 | 264 | 3.2 | 14.5 | 0.00 | 0.03 | 0.03 | 31 | 1004.0 |
| 20260504193602 | 22 | 132 | 3.2 | 14.5 | 0.00 | 0.03 | 0.03 | 32 | 1004.0 |
| 20260504193501 | 22 | 297 | 3.2 | 14.5 | 0.00 | 0.03 | 0.03 | 31 | 1004.1 |
| 20260504193355 | 22 | 279 | 3.2 | 20.9 | 0.00 | 0.03 | 0.03 | 31 | 1004.1 |
| 20260504193255 | 21 | 162 | 4.8 | 20.9 | 0.00 | 0.03 | 0.03 | 32 | 1004.0 |
| 20260504193155 | 21 | 261 | 4.8 | 20.9 | 0.00 | 0.03 | 0.03 | 32 | 1004.1 |
| 20260504193129 | 21 | 311 | 4.8 | 20.9 | 0.00 | 0.03 | 0.03 | 31 | 1004.1 |
| 20260504193118 | 21 | 282 | 4.8 | 20.9 | 0.00 | 0.03 | 0.03 | 31 | 1004.1 |
| 20260504192958 | 21 | 311 | 4.8 | 20.9 | 0.00 | 0.03 | 0.03 | 31 | 1004.1 |
| 20260504192851 | 21 | 285 | 4.8 | 20.9 | 0.00 | 0.03 | 0.03 | 30 | 1004.1 |
| 20260504192749 | 22 | 300 | 4.8 | 20.9 | 0.00 | 0.03 | 0.03 | 30 | 1004.2 |
| 20260504192650 | 22 | 194 | 4.8 | 20.9 | 0.00 | 0.03 | 0.03 | 30 | 1004.2 |
| 20260504192550 | 22 | 306 | 6.4 | 20.9 | 0.00 | 0.03 | 0.03 | 31 | 1004.2 |
| 20260504192452 | 22 | 280 | 6.4 | 19.3 | 0.00 | 0.03 | 0.03 | 31 | 1004.2 |
| 20260504192344 | 22 | 30 | 6.4 | 22.5 | 0.00 | 0.03 | 0.03 | 30 | 1004.2 |
| 20260504192310 | 22 | 280 | 6.4 | 22.5 | 0.00 | 0.03 | 0.03 | 33 | 1004.1 |
| 20260504192300 | 22 | 142 | 6.4 | 22.5 | 0.00 | 0.03 | 0.03 | 32 | 1004.3 |
| 20260504192043 | 22 | 128 | 8.0 | 22.5 | 0.00 | 0.03 | 0.03 | 31 | 1004.1 |
| 20260504191945 | 21 | 167 | 8.0 | 22.5 | 0.00 | 0.03 | 0.03 | 32 | 1004.1 |
| 20260504191844 | 21 | 162 | 8.0 | 22.5 | 0.00 | 0.03 | 0.03 | 31 | 1004.2 |
| 20260504191741 | 21 | 259 | 8.0 | 22.5 | 0.00 | 0.03 | 0.03 | 31 | 1004.1 |
| 20260504191644 | 21 | 304 | 6.4 | 22.5 | 0.00 | 0.03 | 0.03 | 30 | 1004.3 |
| 20260504191539 | 22 | 287 | 6.4 | 22.5 | 0.00 | 0.03 | 0.03 | 31 | 1004.3 |
| 20260504191505 | 21 | 162 | 6.4 | 22.5 | 0.00 | 0.03 | 0.03 | 32 | 1004.2 |
| 20260504191450 | 22 | 142 | 6.4 | 22.5 | 0.00 | 0.03 | 0.03 | 30 | 1004.2 |
| 20260504191233 | 21 | 187 | 6.4 | 22.5 | 0.00 | 0.03 | 0.03 | 31 | 1004.1 |
| 20260504191134 | 21 | 278 | 6.4 | 22.5 | 0.00 | 0.03 | 0.03 | 31 | 1004.1 |
| 20260504191103 | 21 | 153 | 6.4 | 22.5 | 0.00 | 0.03 | 0.03 | 30 | 1004.2 |
| 20260504191053 | 21 | 288 | 6.4 | 22.5 | 0.00 | 0.03 | 0.03 | 31 | 1004.2 |
| 20260504190931 | 21 | 153 | 6.4 | 22.5 | 0.00 | 0.03 | 0.03 | 30 | 1004.2 |
| 20260504190825 | 21 | 349 | 6.4 | 22.5 | 0.00 | 0.03 | 0.03 | 30 | 1004.4 |
| 20260504190753 | 21 | 260 | 6.4 | 22.5 | 0.00 | 0.03 | 0.03 | 30 | 1004.3 |
| 20260504190743 | 21 | 153 | 6.4 | 22.5 | 0.00 | 0.03 | 0.03 | 31 | 1004.4 |
| 20260504190619 | 21 | 330 | 6.4 | 22.5 | 0.00 | 0.03 | 0.03 | 31 | 1004.3 |
| 20260504190611 | 21 | 156 | 6.4 | 20.9 | 0.00 | 0.03 | 0.03 | 31 | 1004.2 |
| 20260504190600 | 21 | 131 | 6.4 | 22.5 | 0.00 | 0.03 | 0.03 | 31 | 1004.3 |
| 20260504190439 | 21 | 330 | 6.4 | 22.5 | 0.00 | 0.03 | 0.03 | 31 | 1004.3 |
| 20260504190218 | 21 | 33 | 6.4 | 17.7 | 0.00 | 0.03 | 0.03 | 31 | 1004.3 |
| 20260504190119 | 21 | 146 | 6.4 | 17.7 | 0.00 | 0.03 | 0.03 | 31 | 1004.4 |
| 20260504190019 | 21 | 243 | 6.4 | 19.3 | 0.00 | 0.03 | 0.03 | 31 | 1004.3 |
| 20260504185921 | 21 | 302 | 6.4 | 19.3 | 0.00 | 0.03 | 0.03 | 31 | 1004.2 |
| 20260504185813 | 21 | 243 | 6.4 | 19.3 | 0.00 | 0.03 | 0.03 | 31 | 1004.3 |
| 20260504185713 | 21 | 3 | 6.4 | 19.3 | 0.00 | 0.03 | 0.03 | 31 | 1004.3 |
| 20260504185613 | 21 | 248 | 4.8 | 19.3 | 0.00 | 0.03 | 0.03 | 31 | 1004.3 |
| 20260504185513 | 21 | 139 | 4.8 | 19.3 | 0.00 | 0.03 | 0.03 | 30 | 1004.2 |
| 20260504185414 | 21 | 77 | 4.8 | 19.3 | 0.00 | 0.03 | 0.03 | 30 | 1004.4 |
| 20260504185314 | 21 | 248 | 4.8 | 19.3 | 0.00 | 0.03 | 0.03 | 31 | 1004.3 |
| 20260504185212 | 21 | 34 | 4.8 | 19.3 | 0.00 | 0.03 | 0.03 | 31 | 1004.4 |
| 20260504185112 | 21 | 8 | 6.4 | 32.2 | 0.00 | 0.03 | 0.03 | 31 | 1004.4 |
| 20260504185012 | 21 | 333 | 6.4 | 32.2 | 0.00 | 0.03 | 0.03 | 32 | 1004.4 |
| 20260504184914 | 21 | 273 | 6.4 | 32.2 | 0.00 | 0.03 | 0.03 | 31 | 1004.2 |
| 20260504184758 | 21 | 263 | 6.4 | 32.2 | 0.00 | 0.03 | 0.03 | 31 | 1004.3 |
| 20260504184657 | 21 | 257 | 6.4 | 32.2 | 0.00 | 0.03 | 0.03 | 33 | 1004.3 |
| 20260504184558 | 21 | 289 | 6.4 | 32.2 | 0.00 | 0.03 | 0.03 | 32 | 1004.3 |
| 20260504184457 | 21 | 186 | 8.0 | 32.2 | 0.00 | 0.03 | 0.03 | 31 | 1004.3 |
| 20260504184359 | 21 | 264 | 8.0 | 32.2 | 0.00 | 0.03 | 0.03 | 30 | 1004.5 |
| 20260504184320 | 21 | 277 | 8.0 | 32.2 | 0.00 | 0.03 | 0.03 | 31 | 1004.4 |
| 20260504184309 | 21 | 179 | 8.0 | 32.2 | 0.00 | 0.03 | 0.03 | 32 | 1004.5 |
| 20260504184052 | 21 | 160 | 6.4 | 20.9 | 0.00 | 0.03 | 0.03 | 31 | 1004.6 |
| 20260504183956 | 21 | 280 | 6.4 | 20.9 | 0.00 | 0.03 | 0.03 | 30 | 1004.4 |
| 20260504183934 | 21 | 288 | 6.4 | 20.9 | 0.00 | 0.03 | 0.03 | 30 | 1004.4 |
| 20260504183814 | 21 | 129 | 6.4 | 20.9 | 0.00 | 0.03 | 0.03 | 30 | 1004.4 |
| 20260504183810 | 21 | 120 | 4.8 | 20.9 | 0.00 | 0.03 | 0.03 | 30 | 1004.4 |
| 20260504183757 | 21 | 274 | 6.4 | 20.9 | 0.00 | 0.03 | 0.03 | 32 | 1004.6 |
| 20260504183741 | 21 | 257 | 6.4 | 20.9 | 0.00 | 0.03 | 0.03 | 31 | 1004.5 |
| 20260504183348 | 21 | 120 | 4.8 | 20.9 | 0.00 | 0.03 | 0.03 | 30 | 1004.4 |
| 20260504183308 | 21 | 252 | 4.8 | 17.7 | 0.00 | 0.03 | 0.03 | 30 | 1004.6 |
| 20260504183257 | 21 | 129 | 4.8 | 17.7 | 0.00 | 0.03 | 0.03 | 30 | 1004.6 |
| 20260504183042 | 21 | 269 | 4.8 | 17.7 | 0.00 | 0.03 | 0.03 | 30 | 1004.5 |
| 20260504183025 | 21 | 285 | 4.8 | 17.7 | 0.00 | 0.03 | 0.03 | 30 | 1004.4 |
| 20260504182854 | 21 | 313 | 4.8 | 17.7 | 0.00 | 0.03 | 0.03 | 29 | 1004.5 |
| 20260504182637 | 22 | 281 | 6.4 | 17.7 | 0.00 | 0.03 | 0.03 | 30 | 1004.6 |
| 20260504182539 | 22 | 354 | 6.4 | 17.7 | 0.00 | 0.03 | 0.03 | 29 | 1004.6 |
| 20260504182437 | 22 | 328 | 6.4 | 17.7 | 0.00 | 0.03 | 0.03 | 30 | 1004.6 |
| 20260504182335 | 21 | 293 | 6.4 | 17.7 | 0.00 | 0.03 | 0.03 | 32 | 1004.6 |
| 20260504182255 | 21 | 300 | 6.4 | 17.7 | 0.00 | 0.03 | 0.03 | 29 | 1004.4 |
| 20260504182245 | 21 | 215 | 6.4 | 17.7 | 0.00 | 0.03 | 0.03 | 30 | 1004.7 |
| 20260504182027 | 21 | 148 | 6.4 | 17.7 | 0.00 | 0.03 | 0.03 | 29 | 1004.4 |
| 20260504181928 | 21 | 141 | 6.4 | 17.7 | 0.00 | 0.03 | 0.03 | 30 | 1004.6 |
| 20260504181855 | 21 | 123 | 6.4 | 19.3 | 0.00 | 0.03 | 0.03 | 30 | 1004.4 |
| 20260504181846 | 21 | 304 | 6.4 | 17.7 | 0.00 | 0.03 | 0.03 | 30 | 1004.5 |
| 20260504181839 | 21 | 239 | 6.4 | 19.3 | 0.00 | 0.03 | 0.03 | 30 | 1004.5 |
| 20260504181623 | 21 | 148 | 6.4 | 19.3 | 0.00 | 0.03 | 0.03 | 31 | 1004.5 |
| 20260504181521 | 21 | 148 | 6.4 | 19.3 | 0.00 | 0.03 | 0.03 | 31 | 1004.4 |
| 20260504181423 | 21 | 321 | 6.4 | 19.3 | 0.00 | 0.03 | 0.03 | 30 | 1004.4 |
| 20260504181328 | 21 | 355 | 4.8 | 19.3 | 0.00 | 0.03 | 0.03 | 29 | 1004.5 |
| 20260504181323 | 21 | 354 | 4.8 | 19.3 | 0.00 | 0.03 | 0.03 | 29 | 1004.5 |
| 20260504181242 | 21 | 65 | 6.4 | 19.3 | 0.00 | 0.03 | 0.03 | 31 | 1004.7 |
| 20260504181232 | 21 | 296 | 6.4 | 19.3 | 0.00 | 0.03 | 0.03 | 32 | 1004.7 |
| 20260504181015 | 21 | 130 | 4.8 | 19.3 | 0.00 | 0.03 | 0.03 | 30 | 1004.6 |
| 20260504180917 | 21 | 124 | 4.8 | 19.3 | 0.00 | 0.03 | 0.03 | 30 | 1004.5 |
| 20260504180827 | 21 | 101 | 4.8 | 19.3 | 0.00 | 0.03 | 0.03 | 31 | 1004.6 |
| 20260504180818 | 21 | 140 | 4.8 | 19.3 | 0.00 | 0.03 | 0.03 | 30 | 1004.6 |
| 20260504180708 | 21 | 308 | 4.8 | 19.3 | 0.00 | 0.03 | 0.03 | 31 | 1004.6 |
| 20260504180609 | 21 | 297 | 4.8 | 19.3 | 0.00 | 0.03 | 0.03 | 31 | 1004.5 |
| 20260504180509 | 21 | 290 | 4.8 | 19.3 | 0.00 | 0.03 | 0.03 | 30 | 1004.6 |
| 20260504180409 | 21 | 22 | 4.8 | 22.5 | 0.00 | 0.03 | 0.03 | 31 | 1004.6 |
| 20260504180338 | 21 | 127 | 4.8 | 22.5 | 0.00 | 0.03 | 0.03 | 30 | 1004.5 |
| 20260504180329 | 21 | 148 | 6.4 | 22.5 | 0.00 | 0.03 | 0.03 | 30 | 1004.6 |
| 20260504180320 | 21 | 117 | 6.4 | 22.5 | 0.00 | 0.03 | 0.03 | 30 | 1004.6 |
| 20260504180108 | 21 | 259 | 4.8 | 22.5 | 0.00 | 0.03 | 0.03 | 31 | 1004.5 |
| 20260504180051 | 21 | 150 | 4.8 | 22.5 | 0.00 | 0.03 | 0.03 | 31 | 1004.6 |
| 20260504175925 | 21 | 96 | 4.8 | 22.5 | 0.00 | 0.03 | 0.03 | 30 | 1004.6 |
| 20260504175915 | 21 | 243 | 4.8 | 22.5 | 0.00 | 0.03 | 0.03 | 30 | 1004.6 |
| 20260504175657 | 21 | 252 | 6.4 | 22.5 | 0.00 | 0.03 | 0.03 | 31 | 1004.5 |
| 20260504175556 | 21 | 345 | 6.4 | 22.5 | 0.00 | 0.03 | 0.03 | 30 | 1004.5 |
| 20260504175457 | 21 | 269 | 8.0 | 22.5 | 0.00 | 0.03 | 0.03 | 30 | 1004.7 |
| 20260504175357 | 21 | 123 | 8.0 | 29.0 | 0.00 | 0.03 | 0.03 | 32 | 1004.7 |
| 20260504175329 | 21 | 281 | 8.0 | 29.0 | 0.00 | 0.03 | 0.03 | 31 | 1004.7 |
| 20260504175258 | 21 | 280 | 8.0 | 29.0 | 0.00 | 0.03 | 0.03 | 31 | 1004.7 |
| 20260504175151 | 21 | 3 | 8.0 | 29.0 | 0.00 | 0.03 | 0.03 | 32 | 1004.8 |
| 20260504175125 | 21 | 139 | 8.0 | 29.0 | 0.00 | 0.03 | 0.03 | 29 | 1004.5 |
| 20260504175056 | 21 | 130 | 8.0 | 29.0 | 0.00 | 0.03 | 0.03 | 32 | 1004.7 |
| 20260504175046 | 21 | 153 | 8.0 | 29.0 | 0.00 | 0.03 | 0.03 | 30 | 1004.5 |
| 20260504175032 | 21 | 285 | 8.0 | 29.0 | 0.00 | 0.03 | 0.03 | 31 | 1004.5 |
| 20260504175016 | 21 | 146 | 8.0 | 29.0 | 0.00 | 0.03 | 0.03 | 30 | 1004.5 |
| 20260504174855 | 21 | 114 | 8.0 | 29.0 | 0.00 | 0.03 | 0.03 | 29 | 1004.5 |
| 20260504174741 | 21 | 249 | 6.4 | 25.7 | 0.00 | 0.03 | 0.03 | 32 | 1004.6 |
| 20260504174727 | 21 | 151 | 8.0 | 29.0 | 0.00 | 0.03 | 0.03 | 30 | 1004.6 |
| 20260504174557 | 21 | 129 | 6.4 | 29.0 | 0.00 | 0.03 | 0.03 | 32 | 1004.7 |
| 20260504174309 | 21 | 195 | 6.4 | 25.7 | 0.00 | 0.03 | 0.03 | 31 | 1004.6 |
| 20260504174259 | 21 | 283 | 6.4 | 25.7 | 0.00 | 0.03 | 0.03 | 31 | 1004.6 |
| 20260504174122 | 21 | 238 | 8.0 | 25.7 | 0.00 | 0.03 | 0.03 | 29 | 1004.6 |
| 20260504173959 | 21 | 122 | 8.0 | 27.4 | 0.00 | 0.03 | 0.03 | 30 | 1004.8 |
| 20260504173829 | 21 | 85 | 8.0 | 27.4 | 0.00 | 0.03 | 0.03 | 30 | 1005.0 |
| 20260504173741 | 21 | 97 | 8.0 | 27.4 | 0.00 | 0.03 | 0.03 | 30 | 1005.0 |
| 20260504173633 | 21 | 319 | 8.0 | 27.4 | 0.00 | 0.03 | 0.03 | 31 | 1004.7 |
| 20260504173600 | 21 | 65 | 8.0 | 27.4 | 0.00 | 0.03 | 0.03 | 30 | 1004.8 |
| 20260504173550 | 21 | 57 | 8.0 | 27.4 | 0.00 | 0.03 | 0.03 | 31 | 1004.7 |
| 20260504173336 | 21 | 58 | 8.0 | 27.4 | 0.00 | 0.03 | 0.03 | 30 | 1004.8 |
| 20260504173327 | 21 | 345 | 8.0 | 27.4 | 0.00 | 0.03 | 0.03 | 30 | 1004.7 |
| 20260504173234 | 21 | 341 | 8.0 | 27.4 | 0.00 | 0.03 | 0.03 | 29 | 1004.7 |
| 20260504173127 | 21 | 26 | 8.0 | 27.4 | 0.00 | 0.03 | 0.03 | 30 | 1004.7 |
| 20260504173029 | 21 | 288 | 8.0 | 27.4 | 0.00 | 0.03 | 0.03 | 31 | 1004.7 |
| 20260504172928 | 21 | 133 | 6.4 | 22.5 | 0.00 | 0.03 | 0.03 | 31 | 1004.6 |
| 20260504172834 | 21 | 225 | 6.4 | 22.5 | 0.00 | 0.03 | 0.03 | 31 | 1004.7 |
| 20260504172827 | 21 | 245 | 6.4 | 22.5 | 0.00 | 0.03 | 0.03 | 31 | 1004.7 |
| 20260504172728 | 21 | 290 | 6.4 | 22.5 | 0.00 | 0.03 | 0.03 | 31 | 1004.7 |
| 20260504172622 | 21 | 299 | 6.4 | 22.5 | 0.00 | 0.03 | 0.03 | 32 | 1004.5 |
| 20260504172522 | 20 | 145 | 6.4 | 22.5 | 0.00 | 0.03 | 0.03 | 31 | 1004.6 |
| 20260504172421 | 20 | 117 | 6.4 | 22.5 | 0.00 | 0.03 | 0.03 | 31 | 1004.7 |
| 20260504172328 | 20 | 198 | 8.0 | 25.7 | 0.00 | 0.03 | 0.03 | 31 | 1004.7 |
| 20260504172321 | 20 | 159 | 8.0 | 25.7 | 0.00 | 0.03 | 0.03 | 30 | 1004.7 |
| 20260504172221 | 21 | 128 | 6.4 | 25.7 | 0.00 | 0.03 | 0.03 | 30 | 1004.8 |
| 20260504172141 | 20 | 288 | 6.4 | 25.7 | 0.00 | 0.03 | 0.03 | 32 | 1004.7 |
| 20260504172131 | 21 | 122 | 6.4 | 25.7 | 0.00 | 0.03 | 0.03 | 32 | 1004.9 |
| 20260504171916 | 20 | 108 | 6.4 | 25.7 | 0.00 | 0.03 | 0.03 | 32 | 1004.9 |
| 20260504171849 | 20 | 294 | 6.4 | 25.7 | 0.00 | 0.03 | 0.03 | 30 | 1004.8 |
| 20260504171839 | 20 | 259 | 6.4 | 25.7 | 0.00 | 0.03 | 0.03 | 31 | 1004.8 |
| 20260504171833 | 20 | 349 | 6.4 | 25.7 | 0.00 | 0.03 | 0.03 | 31 | 1004.8 |
| 20260504171635 | 20 | 264 | 6.4 | 24.1 | 0.00 | 0.03 | 0.03 | 32 | 1005.1 |
| 20260504171629 | 20 | 298 | 4.8 | 20.9 | 0.00 | 0.03 | 0.03 | 32 | 1004.8 |
| 20260504171623 | 20 | 142 | 6.4 | 20.9 | 0.00 | 0.03 | 0.03 | 32 | 1004.8 |
| 20260504171615 | 20 | 298 | 6.4 | 25.7 | 0.00 | 0.03 | 0.03 | 33 | 1004.9 |
| 20260504171557 | 20 | 285 | 6.4 | 25.7 | 0.00 | 0.03 | 0.03 | 31 | 1004.7 |
| 20260504171430 | 20 | 139 | 4.8 | 20.9 | 0.00 | 0.03 | 0.03 | 32 | 1004.8 |
| 20260504171305 | 20 | 86 | 4.8 | 20.9 | 0.00 | 0.03 | 0.03 | 34 | 1004.8 |
| 20260504171144 | 20 | 123 | 6.4 | 20.9 | 0.00 | 0.03 | 0.03 | 33 | 1004.8 |
| 20260504170828 | 20 | 262 | 6.4 | 20.9 | 0.00 | 0.03 | 0.03 | 33 | 1004.9 |
| 20260504170804 | 20 | 138 | 6.4 | 20.9 | 0.00 | 0.03 | 0.03 | 32 | 1004.9 |
| 20260504170704 | 20 | 187 | 6.4 | 20.9 | 0.00 | 0.03 | 0.03 | 32 | 1005.1 |
| 20260504170558 | 20 | 299 | 6.4 | 20.9 | 0.00 | 0.03 | 0.03 | 32 | 1005.1 |
| 20260504170458 | 20 | 242 | 6.4 | 20.9 | 0.00 | 0.03 | 0.03 | 32 | 1005.0 |
| 20260504170358 | 20 | 262 | 6.4 | 20.9 | 0.00 | 0.03 | 0.03 | 32 | 1004.9 |
| 20260504170327 | 20 | 321 | 6.4 | 20.9 | 0.00 | 0.03 | 0.03 | 32 | 1005.0 |
| 20260504170258 | 20 | 288 | 6.4 | 20.9 | 0.00 | 0.03 | 0.03 | 32 | 1005.0 |
| 20260504170158 | 20 | 70 | 8.0 | 24.1 | 0.00 | 0.03 | 0.03 | 32 | 1004.9 |
| 20260504160440 | 19 | 294 | 9.7 | 33.8 | 0.03 | 0.03 | 0.03 | 33 | 1005.5 |
| 20260504160409 | 19 | 93 | 9.7 | 33.8 | 0.03 | 0.03 | 0.03 | 34 | 1005.7 |
| 20260504160358 | 19 | 277 | 9.7 | 33.8 | 0.03 | 0.03 | 0.03 | 32 | 1005.6 |
| 20260504160224 | 19 | 277 | 9.7 | 33.8 | 0.03 | 0.03 | 0.03 | 34 | 1005.8 |
| 20260504160140 | 19 | 130 | 9.7 | 27.4 | 0.03 | 0.03 | 0.03 | 35 | 1005.8 |
| 20260504151042 | 18 | 170 | 6.4 | 17.7 | 0.00 | 0.00 | 0.03 | 36 | 1005.9 |
| 20260504150942 | 18 | 123 | 6.4 | 17.7 | 0.00 | 0.00 | 0.00 | 37 | 1005.9 |
| 20260504150838 | 18 | 108 | 8.0 | 24.1 | 0.00 | 0.00 | 0.00 | 37 | 1005.9 |
| 20260504150737 | 18 | 260 | 6.4 | 24.1 | 0.00 | 0.00 | 0.00 | 38 | 1005.9 |
| 20260504150637 | 18 | 288 | 6.4 | 24.1 | 0.00 | 0.00 | 0.00 | 38 | 1005.9 |
| 20260504150616 | 18 | 225 | 6.4 | 24.1 | 0.00 | 0.00 | 0.00 | 38 | 1005.9 |
| 20260504150537 | 17 | 235 | 6.4 | 24.1 | 0.00 | 0.00 | 0.00 | 38 | 1005.9 |
| 20260504150436 | 17 | 315 | 6.4 | 24.1 | 0.00 | 0.00 | 0.00 | 38 | 1006.0 |
| 20260504150329 | 17 | 351 | 6.4 | 24.1 | 0.00 | 0.00 | 0.00 | 37 | 1005.9 |
| 20260504150229 | 17 | 316 | 6.4 | 24.1 | 0.00 | 0.00 | 0.00 | 37 | 1006.0 |
| 20260504150130 | 17 | 132 | 6.4 | 24.1 | 0.00 | 0.00 | 0.00 | 37 | 1006.0 |
| 20260504150111 | 17 | 276 | 6.4 | 24.1 | 0.00 | 0.00 | 0.00 | 37 | 1006.0 |
| 20260504141320 | 15 | 30 | 4.8 | 16.1 | 0.00 | 0.00 | 0.00 | 45 | 1007.0 |
| 20260504141305 | 15 | 276 | 4.8 | 16.1 | 0.00 | 0.00 | 0.00 | 43 | 1006.9 |
| 20260504141250 | 15 | 122 | 4.8 | 16.1 | 0.00 | 0.00 | 0.00 | 44 | 1006.9 |
| 20260504140929 | 15 | 315 | 4.8 | 16.1 | 0.00 | 0.00 | 0.00 | 44 | 1006.9 |
| 20260504140829 | 15 | 228 | 4.8 | 16.1 | 0.00 | 0.00 | 0.00 | 44 | 1007.0 |
| 20260504140723 | 15 | 312 | 4.8 | 16.1 | 0.00 | 0.00 | 0.00 | 44 | 1007.1 |
| 20260504140623 | 15 | 129 | 4.8 | 16.1 | 0.00 | 0.00 | 0.00 | 44 | 1007.0 |
| 20260504140529 | 15 | 249 | 4.8 | 16.1 | 0.00 | 0.00 | 0.00 | 44 | 1007.0 |
| 20260504140522 | 15 | 174 | 4.8 | 16.1 | 0.00 | 0.00 | 0.00 | 44 | 1007.0 |
| 20260504140422 | 15 | 264 | 4.8 | 16.1 | 0.00 | 0.00 | 0.00 | 44 | 1007.0 |
| 20260504140324 | 15 | 36 | 3.2 | 16.1 | 0.00 | 0.00 | 0.00 | 44 | 1007.0 |
| 20260504140216 | 15 | 304 | 4.8 | 12.9 | 0.00 | 0.00 | 0.00 | 44 | 1007.1 |
| 20260504140117 | 15 | 128 | 3.2 | 12.9 | 0.00 | 0.00 | 0.00 | 45 | 1007.0 |
| 20260504130754 | 13 | 117 | 4.8 | 16.1 | 0.00 | 0.00 | 0.00 | 49 | 1007.5 |
| 20260504130746 | 13 | 297 | 4.8 | 16.1 | 0.00 | 0.00 | 0.00 | 49 | 1007.5 |
| 20260504130528 | 13 | 127 | 4.8 | 11.3 | 0.00 | 0.00 | 0.00 | 51 | 1007.5 |
| 20260504130428 | 13 | 77 | 3.2 | 11.3 | 0.00 | 0.00 | 0.00 | 49 | 1007.4 |
| 20260504130327 | 13 | 131 | 3.2 | 11.3 | 0.00 | 0.00 | 0.00 | 50 | 1007.4 |
| 20260504130227 | 13 | 156 | 3.2 | 11.3 | 0.00 | 0.00 | 0.00 | 51 | 1007.4 |
| 20260504130127 | 13 | 142 | 4.8 | 14.5 | 0.00 | 0.00 | 0.00 | 51 | 1007.4 |
| 20260504120315 | 9 | 221 | 1.6 | 6.4 | 0.00 | 0.00 | 0.00 | 62 | 1007.8 |
| 20260504120215 | 9 | 5 | 1.6 | 9.7 | 0.00 | 0.00 | 0.00 | 63 | 1007.8 |
| 20260504120116 | 9 | 115 | 1.6 | 9.7 | 0.00 | 0.00 | 0.00 | 63 | 1007.8 |
| 20260504110708 | 4 | 87 | 0.0 | 0.0 | 0.00 | 0.00 | 0.00 | 82 | 1008.0 |
| 20260504110621 | 4 | 88 | 0.0 | 0.0 | 0.00 | 0.00 | 0.00 | 82 | 1008.0 |
| 20260504110609 | 4 | 88 | 0.0 | 0.0 | 0.00 | 0.00 | 0.00 | 82 | 1008.0 |
| 20260504110521 | 4 | 88 | 0.0 | 0.0 | 0.00 | 0.00 | 0.00 | 82 | 1008.0 |
| 20260504110507 | 4 | 88 | 0.0 | 0.0 | 0.00 | 0.00 | 0.00 | 82 | 1008.0 |
| 20260504110309 | 4 | 88 | 0.0 | 0.0 | 0.00 | 0.00 | 0.00 | 82 | 1008.0 |
| 20260504110207 | 4 | 88 | 0.0 | 0.0 | 0.00 | 0.00 | 0.00 | 82 | 1008.0 |
| 20260504110108 | 4 | 88 | 0.0 | 0.0 | 0.00 | 0.00 | 0.00 | 82 | 1007.9 |
| 20260504100612 | 4 | 87 | 0.0 | 0.0 | 0.00 | 0.00 | 0.00 | 80 | 1008.1 |
| 20260504100335 | 4 | 88 | 0.0 | 0.0 | 0.00 | 0.00 | 0.00 | 81 | 1008.1 |
| 20260504100255 | 4 | 87 | 0.0 | 0.0 | 0.00 | 0.00 | 0.00 | 81 | 1008.1 |
| 20260504100153 | 3 | 88 | 0.0 | 0.0 | 0.00 | 0.00 | 0.00 | 81 | 1008.1 |
| 20260504100118 | 3 | 88 | 0.0 | 0.0 | 0.00 | 0.00 | 0.00 | 83 | 1008.1 |
| 20260504100111 | 3 | 88 | 0.0 | 0.0 | 0.00 | 0.00 | 0.00 | 82 | 1008.2 |
| 20260504090140 | 4 | 87 | 0.0 | 0.0 | 0.00 | 0.00 | 0.00 | 82 | 1008.0 |
| 20260504081953 | 3 | 87 | 0.0 | 0.0 | 0.00 | 0.00 | 0.00 | 87 | 1008.0 |
| 20260504081847 | 3 | 88 | 0.0 | 0.0 | 0.00 | 0.00 | 0.00 | 87 | 1008.0 |
| 20260504081748 | 3 | 86 | 0.0 | 0.0 | 0.00 | 0.00 | 0.00 | 87 | 1008.0 |
| 20260504081647 | 3 | 87 | 0.0 | 0.0 | 0.00 | 0.00 | 0.00 | 87 | 1008.0 |
| 20260504081628 | 3 | 88 | 0.0 | 0.0 | 0.00 | 0.00 | 0.00 | 87 | 1008.0 |
| 20260504081547 | 3 | 86 | 0.0 | 0.0 | 0.00 | 0.00 | 0.00 | 87 | 1008.0 |
| 20260504081446 | 3 | 88 | 0.0 | 0.0 | 0.00 | 0.00 | 0.00 | 87 | 1008.0 |
| 20260504081351 | 3 | 86 | 0.0 | 0.0 | 0.00 | 0.00 | 0.00 | 87 | 1008.0 |
| 20260504081343 | 3 | 86 | 0.0 | 0.0 | 0.00 | 0.00 | 0.00 | 87 | 1008.0 |
| 20260504081250 | 3 | 86 | 0.0 | 0.0 | 0.00 | 0.00 | 0.00 | 87 | 1008.0 |
| 20260504081233 | 3 | 86 | 0.0 | 0.0 | 0.00 | 0.00 | 0.00 | 87 | 1008.0 |
| 20260504081043 | 3 | 88 | 0.0 | 0.0 | 0.00 | 0.00 | 0.00 | 87 | 1008.0 |
| 20260504081015 | 3 | 87 | 0.0 | 0.0 | 0.00 | 0.00 | 0.00 | 87 | 1008.0 |
| 20260504080850 | 3 | 88 | 0.0 | 0.0 | 0.00 | 0.00 | 0.00 | 87 | 1008.0 |
| 20260504080616 | 3 | 86 | 0.0 | 0.0 | 0.00 | 0.00 | 0.00 | 87 | 1008.0 |
| 20260504080540 | 3 | 86 | 0.0 | 0.0 | 0.00 | 0.00 | 0.00 | 87 | 1008.0 |
| 20260504080437 | 3 | 86 | 0.0 | 1.6 | 0.00 | 0.00 | 0.00 | 87 | 1008.0 |
| 20260504080400 | 3 | 86 | 0.0 | 1.6 | 0.00 | 0.00 | 0.00 | 87 | 1008.0 |
| 20260504080350 | 3 | 86 | 0.0 | 1.6 | 0.00 | 0.00 | 0.00 | 87 | 1008.0 |
| 20260504080203 | 3 | 87 | 0.0 | 1.6 | 0.00 | 0.00 | 0.00 | 87 | 1008.0 |
| 20260504080141 | 3 | 87 | 0.0 | 1.6 | 0.00 | 0.00 | 0.00 | 87 | 1008.0 |
| 20260504070323 | 3 | 86 | 0.0 | 0.0 | 0.00 | 0.00 | 0.00 | 87 | 1008.1 |
| 20260504070224 | 3 | 86 | 0.0 | 0.0 | 0.00 | 0.00 | 0.00 | 87 | 1008.1 |
| 20260504070121 | 3 | 86 | 0.0 | 0.0 | 0.00 | 0.00 | 0.00 | 87 | 1008.1 |
| 20260504070104 | 3 | 86 | 0.0 | 0.0 | 0.00 | 0.00 | 0.00 | 87 | 1008.1 |
| 20260504060243 | 2 | 85 | 0.0 | 0.0 | 0.00 | 0.00 | 0.00 | 89 | 1007.9 |
| 20260504050623 | 1 | 85 | 0.0 | 0.0 | 0.00 | 0.00 | 0.00 | 89 | 1007.9 |
| 20260504050524 | 1 | 85 | 0.0 | 0.0 | 0.00 | 0.00 | 0.00 | 89 | 1008.0 |
| 20260504050428 | 1 | 85 | 0.0 | 0.0 | 0.00 | 0.00 | 0.00 | 89 | 1008.0 |
| 20260504050422 | 1 | 84 | 0.0 | 0.0 | 0.00 | 0.00 | 0.00 | 89 | 1008.0 |
| 20260504050341 | 1 | 85 | 0.0 | 0.0 | 0.00 | 0.00 | 0.00 | 89 | 1008.0 |
| 20260504050331 | 1 | 84 | 0.0 | 0.0 | 0.00 | 0.00 | 0.00 | 89 | 1008.0 |
| 20260504050142 | 1 | 85 | 0.0 | 0.0 | 0.00 | 0.00 | 0.00 | 89 | 1008.0 |
| 20260504050132 | 1 | 84 | 0.0 | 0.0 | 0.00 | 0.00 | 0.00 | 89 | 1008.0 |
| 20260504045944 | 1 | 85 | 0.0 | 0.0 | 0.00 | 0.00 | 0.00 | 89 | 1008.0 |
| 20260504045929 | 1 | 85 | 0.0 | 0.0 | 0.00 | 0.00 | 0.00 | 89 | 1008.0 |
| 20260504045748 | 1 | 84 | 0.0 | 0.0 | 0.00 | 0.00 | 0.00 | 89 | 1008.0 |
| 20260504045624 | 1 | 84 | 0.0 | 0.0 | 0.00 | 0.00 | 0.00 | 89 | 1008.1 |
| 20260504045423 | 1 | 85 | 0.0 | 0.0 | 0.00 | 0.00 | 0.00 | 89 | 1008.1 |
| 20260504045408 | 1 | 84 | 0.0 | 0.0 | 0.00 | 0.00 | 0.00 | 89 | 1008.1 |
| 20260504045333 | 1 | 85 | 0.0 | 0.0 | 0.00 | 0.00 | 0.00 | 89 | 1008.1 |
| 20260504045324 | 1 | 85 | 0.0 | 0.0 | 0.00 | 0.00 | 0.00 | 89 | 1008.1 |
| 20260504045143 | 1 | 85 | 0.0 | 0.0 | 0.00 | 0.00 | 0.00 | 89 | 1008.1 |
| 20260504045107 | 1 | 85 | 0.0 | 0.0 | 0.00 | 0.00 | 0.00 | 89 | 1008.1 |
| 20260504045037 | 1 | 84 | 0.0 | 0.0 | 0.00 | 0.00 | 0.00 | 89 | 1008.1 |
| 20260504044905 | 1 | 84 | 0.0 | 0.0 | 0.00 | 0.00 | 0.00 | 89 | 1008.1 |
| 20260504044758 | 1 | 84 | 0.0 | 0.0 | 0.00 | 0.00 | 0.00 | 89 | 1008.1 |
| 20260504044736 | 1 | 85 | 0.0 | 0.0 | 0.00 | 0.00 | 0.00 | 89 | 1008.2 |
| 20260504044614 | 1 | 85 | 0.0 | 0.0 | 0.00 | 0.00 | 0.00 | 89 | 1008.1 |
| 20260504044423 | 0 | 85 | 0.0 | 0.0 | 0.00 | 0.00 | 0.00 | 88 | 1008.1 |
| 20260504044402 | 0 | 84 | 0.0 | 0.0 | 0.00 | 0.00 | 0.00 | 88 | 1008.1 |
| 20260504044344 | 0 | 85 | 0.0 | 0.0 | 0.00 | 0.00 | 0.00 | 88 | 1008.1 |
| 20260504044202 | 0 | 85 | 0.0 | 0.0 | 0.00 | 0.00 | 0.00 | 88 | 1008.0 |
| 20260504044155 | 0 | 85 | 0.0 | 0.0 | 0.00 | 0.00 | 0.00 | 88 | 1008.1 |
| 20260504044138 | 0 | 84 | 0.0 | 0.0 | 0.00 | 0.00 | 0.00 | 88 | 1008.0 |
| 20260504044121 | 0 | 84 | 0.0 | 0.0 | 0.00 | 0.00 | 0.00 | 88 | 1008.0 |
| 20260504044000 | 0 | 85 | 0.0 | 0.0 | 0.00 | 0.00 | 0.00 | 88 | 1008.0 |
| 20260504043729 | 0 | 85 | 0.0 | 0.0 | 0.00 | 0.00 | 0.00 | 88 | 1008.1 |
| 20260504043717 | 0 | 85 | 0.0 | 0.0 | 0.00 | 0.00 | 0.00 | 88 | 1008.1 |
| 20260504043421 | 0 | 85 | 0.0 | 0.0 | 0.00 | 0.00 | 0.00 | 88 | 1008.1 |
| 20260504043346 | 0 | 85 | 0.0 | 0.0 | 0.00 | 0.00 | 0.00 | 88 | 1008.1 |
| 20260504043245 | 0 | 85 | 0.0 | 0.0 | 0.00 | 0.00 | 0.00 | 88 | 1008.1 |
| 20260504043143 | 0 | 84 | 0.0 | 0.0 | 0.00 | 0.00 | 0.00 | 88 | 1008.1 |
| 20260504043040 | 0 | 85 | 0.0 | 0.0 | 0.00 | 0.00 | 0.00 | 88 | 1008.1 |
| 20260504042941 | 0 | 85 | 0.0 | 0.0 | 0.00 | 0.00 | 0.00 | 88 | 1008.0 |
| 20260504042922 | 0 | 84 | 0.0 | 0.0 | 0.00 | 0.00 | 0.00 | 88 | 1008.1 |
| 20260504042839 | 0 | 85 | 0.0 | 0.0 | 0.00 | 0.00 | 0.00 | 88 | 1008.1 |
| 20260504042734 | 0 | 85 | 0.0 | 0.0 | 0.00 | 0.00 | 0.00 | 87 | 1008.1 |
| 20260504042633 | 0 | 85 | 0.0 | 0.0 | 0.00 | 0.00 | 0.00 | 87 | 1008.1 |
| 20260504042532 | 0 | 84 | 0.0 | 0.0 | 0.00 | 0.00 | 0.00 | 87 | 1008.1 |
| 20260504042432 | 0 | 84 | 0.0 | 0.0 | 0.00 | 0.00 | 0.00 | 87 | 1008.1 |
| 20260504042422 | 0 | 85 | 0.0 | 0.0 | 0.00 | 0.00 | 0.00 | 87 | 1008.0 |
| 20260504042334 | 0 | 85 | 0.0 | 0.0 | 0.00 | 0.00 | 0.00 | 87 | 1008.0 |
| 20260504042236 | 0 | 85 | 0.0 | 0.0 | 0.00 | 0.00 | 0.00 | 87 | 1008.0 |
| 20260504042134 | 0 | 85 | 0.0 | 0.0 | 0.00 | 0.00 | 0.00 | 87 | 1008.0 |
| 20260504042125 | 0 | 85 | 0.0 | 0.0 | 0.00 | 0.00 | 0.00 | 86 | 1008.0 |
| 20260504042120 | 0 | 85 | 0.0 | 0.0 | 0.00 | 0.00 | 0.00 | 86 | 1007.9 |
| 20260504042109 | 0 | 85 | 0.0 | 0.0 | 0.00 | 0.00 | 0.00 | 86 | 1008.0 |
| 20260504041943 | 0 | 85 | 0.0 | 0.0 | 0.00 | 0.00 | 0.00 | 86 | 1008.0 |
| 20260504041820 | 0 | 85 | 0.0 | 0.0 | 0.00 | 0.00 | 0.00 | 86 | 1007.9 |
| 20260504041813 | 0 | 84 | 0.0 | 0.0 | 0.00 | 0.00 | 0.00 | 87 | 1007.9 |
| 20260504041802 | 0 | 85 | 0.0 | 0.0 | 0.00 | 0.00 | 0.00 | 86 | 1008.0 |
| 20260504041427 | 0 | 85 | 0.0 | 0.0 | 0.00 | 0.00 | 0.00 | 87 | 1008.0 |
| 20260504041418 | 0 | 84 | 0.0 | 0.0 | 0.00 | 0.00 | 0.00 | 87 | 1008.0 |
| 20260504041327 | 0 | 85 | 0.0 | 0.0 | 0.00 | 0.00 | 0.00 | 87 | 1007.9 |
| 20260504041226 | 0 | 84 | 0.0 | 0.0 | 0.00 | 0.00 | 0.00 | 86 | 1008.0 |
| 20260504041128 | 0 | 85 | 0.0 | 0.0 | 0.00 | 0.00 | 0.00 | 86 | 1008.0 |
| 20260504041055 | 0 | 85 | 0.0 | 0.0 | 0.00 | 0.00 | 0.00 | 86 | 1007.9 |
| 20260504041046 | 0 | 85 | 0.0 | 0.0 | 0.00 | 0.00 | 0.00 | 86 | 1007.9 |
| 20260504040920 | 1 | 84 | 0.0 | 0.0 | 0.00 | 0.00 | 0.00 | 86 | 1007.9 |
| 20260504040827 | 1 | 85 | 0.0 | 0.0 | 0.00 | 0.00 | 0.00 | 86 | 1007.9 |
| 20260504040729 | 1 | 85 | 0.0 | 0.0 | 0.00 | 0.00 | 0.00 | 86 | 1007.9 |
| 20260504040624 | 1 | 84 | 0.0 | 0.0 | 0.00 | 0.00 | 0.00 | 86 | 1007.9 |
| 20260504040525 | 1 | 84 | 0.0 | 0.0 | 0.00 | 0.00 | 0.00 | 86 | 1007.8 |
| 20260504040427 | 1 | 84 | 0.0 | 0.0 | 0.00 | 0.00 | 0.00 | 86 | 1007.9 |
| 20260504040417 | 1 | 85 | 0.0 | 0.0 | 0.00 | 0.00 | 0.00 | 86 | 1007.9 |
| 20260504040323 | 1 | 85 | 0.0 | 0.0 | 0.00 | 0.00 | 0.00 | 86 | 1007.8 |
| 20260504040221 | 1 | 85 | 0.0 | 0.0 | 0.00 | 0.00 | 0.00 | 86 | 1007.8 |
| 20260504040118 | 1 | 84 | 0.0 | 0.0 | 0.00 | 0.00 | 0.00 | 86 | 1007.9 |
| 20260504040020 | 1 | 85 | 0.0 | 0.0 | 0.00 | 0.00 | 0.00 | 86 | 1007.8 |
| 20260504035920 | 1 | 84 | 0.0 | 0.0 | 0.00 | 0.00 | 0.00 | 86 | 1007.9 |
| 20260504035844 | 1 | 85 | 0.0 | 0.0 | 0.00 | 0.00 | 0.00 | 85 | 1007.9 |
| 20260504035834 | 1 | 85 | 0.0 | 0.0 | 0.00 | 0.00 | 0.00 | 86 | 1007.9 |
| 20260504035642 | 1 | 84 | 0.0 | 0.0 | 0.00 | 0.00 | 0.00 | 85 | 1007.8 |
| 20260504035621 | 1 | 85 | 0.0 | 0.0 | 0.00 | 0.00 | 0.00 | 85 | 1007.9 |
| 20260504035538 | 1 | 84 | 0.0 | 0.0 | 0.00 | 0.00 | 0.00 | 85 | 1007.9 |
| 20260504035417 | 1 | 85 | 0.0 | 0.0 | 0.00 | 0.00 | 0.00 | 85 | 1007.8 |
| 20260504035318 | 1 | 84 | 0.0 | 0.0 | 0.00 | 0.00 | 0.00 | 85 | 1007.8 |
| 20260504035214 | 1 | 84 | 0.0 | 0.0 | 0.00 | 0.00 | 0.00 | 85 | 1007.9 |
| 20260504035114 | 1 | 84 | 0.0 | 0.0 | 0.00 | 0.00 | 0.00 | 85 | 1007.8 |
| 20260504035009 | 1 | 84 | 0.0 | 0.0 | 0.00 | 0.00 | 0.00 | 85 | 1007.9 |
| 20260504034919 | 1 | 85 | 0.0 | 0.0 | 0.00 | 0.00 | 0.00 | 85 | 1007.9 |
| 20260504034909 | 1 | 84 | 0.0 | 0.0 | 0.00 | 0.00 | 0.00 | 85 | 1007.9 |
| 20260504034810 | 1 | 85 | 0.0 | 0.0 | 0.00 | 0.00 | 0.00 | 85 | 1007.8 |
| 20260504034734 | 1 | 84 | 0.0 | 0.0 | 0.00 | 0.00 | 0.00 | 85 | 1007.8 |
| 20260504034723 | 1 | 84 | 0.0 | 0.0 | 0.00 | 0.00 | 0.00 | 85 | 1007.8 |
| 20260504034503 | 1 | 85 | 0.0 | 0.0 | 0.00 | 0.00 | 0.00 | 85 | 1007.8 |
| 20260504034417 | 1 | 84 | 0.0 | 0.0 | 0.00 | 0.00 | 0.00 | 85 | 1007.8 |
| 20260504034401 | 1 | 84 | 0.0 | 0.0 | 0.00 | 0.00 | 0.00 | 85 | 1007.8 |
| 20260504034301 | 1 | 85 | 0.0 | 0.0 | 0.00 | 0.00 | 0.00 | 85 | 1007.8 |
| 20260504034203 | 1 | 85 | 0.0 | 0.0 | 0.00 | 0.00 | 0.00 | 85 | 1007.7 |
| 20260504034100 | 1 | 85 | 0.0 | 0.0 | 0.00 | 0.00 | 0.00 | 85 | 1007.8 |
| 20260504034000 | 1 | 85 | 0.0 | 0.0 | 0.00 | 0.00 | 0.00 | 85 | 1007.8 |
| 20260504033933 | 1 | 85 | 0.0 | 0.0 | 0.00 | 0.00 | 0.00 | 85 | 1007.8 |
| 20260504033926 | 1 | 85 | 0.0 | 0.0 | 0.00 | 0.00 | 0.00 | 85 | 1007.7 |
| 20260504033914 | 1 | 85 | 0.0 | 0.0 | 0.00 | 0.00 | 0.00 | 85 | 1007.7 |
| 20260504033655 | 1 | 85 | 0.0 | 0.0 | 0.00 | 0.00 | 0.00 | 85 | 1007.8 |
| 20260504033553 | 1 | 85 | 0.0 | 0.0 | 0.00 | 0.00 | 0.00 | 85 | 1007.7 |
| 20260504033452 | 1 | 85 | 0.0 | 0.0 | 0.00 | 0.00 | 0.00 | 85 | 1007.7 |
| 20260504033415 | 1 | 85 | 0.0 | 0.0 | 0.00 | 0.00 | 0.00 | 85 | 1007.8 |
| 20260504033406 | 1 | 84 | 0.0 | 0.0 | 0.00 | 0.00 | 0.00 | 85 | 1007.8 |
| 20260504033352 | 1 | 85 | 0.0 | 0.0 | 0.00 | 0.00 | 0.00 | 85 | 1007.7 |
| 20260504033234 | 1 | 85 | 0.0 | 0.0 | 0.00 | 0.00 | 0.00 | 84 | 1007.8 |
| 20260504033223 | 1 | 84 | 0.0 | 0.0 | 0.00 | 0.00 | 0.00 | 85 | 1007.8 |
| 20260504033059 | 1 | 85 | 0.0 | 0.0 | 0.00 | 0.00 | 0.00 | 85 | 1007.8 |
| 20260504033042 | 1 | 85 | 0.0 | 0.0 | 0.00 | 0.00 | 0.00 | 85 | 1007.8 |
| 20260504032917 | 1 | 84 | 0.0 | 0.0 | 0.00 | 0.00 | 0.00 | 84 | 1007.8 |
| 20260504032542 | 1 | 84 | 0.0 | 0.0 | 0.00 | 0.00 | 0.00 | 84 | 1007.8 |
| 20260504032443 | 1 | 85 | 0.0 | 0.0 | 0.00 | 0.00 | 0.00 | 84 | 1007.7 |
| 20260504032358 | 1 | 84 | 0.0 | 0.0 | 0.00 | 0.00 | 0.00 | 84 | 1007.8 |
| 20260504032338 | 1 | 85 | 0.0 | 0.0 | 0.00 | 0.00 | 0.00 | 84 | 1007.8 |
| 20260504032240 | 1 | 85 | 0.0 | 0.0 | 0.00 | 0.00 | 0.00 | 84 | 1007.8 |
| 20260504032210 | 1 | 84 | 0.0 | 0.0 | 0.00 | 0.00 | 0.00 | 84 | 1007.7 |
| 20260504032048 | 1 | 84 | 0.0 | 0.0 | 0.00 | 0.00 | 0.00 | 84 | 1007.7 |
| 20260504031853 | 1 | 85 | 0.0 | 0.0 | 0.00 | 0.00 | 0.00 | 84 | 1007.7 |
| 20260504031830 | 1 | 84 | 0.0 | 0.0 | 0.00 | 0.00 | 0.00 | 83 | 1007.7 |
| 20260504031729 | 1 | 85 | 0.0 | 0.0 | 0.00 | 0.00 | 0.00 | 83 | 1007.7 |
| 20260504031629 | 1 | 84 | 0.0 | 0.0 | 0.00 | 0.00 | 0.00 | 83 | 1007.7 |
| 20260504031528 | 1 | 84 | 0.0 | 0.0 | 0.00 | 0.00 | 0.00 | 83 | 1007.7 |
| 20260504031424 | 1 | 85 | 0.0 | 0.0 | 0.00 | 0.00 | 0.00 | 83 | 1007.7 |
| 20260504031324 | 1 | 85 | 0.0 | 0.0 | 0.00 | 0.00 | 0.00 | 83 | 1007.7 |
| 20260504031224 | 1 | 84 | 0.0 | 0.0 | 0.00 | 0.00 | 0.00 | 83 | 1007.7 |
| 20260504031124 | 1 | 84 | 0.0 | 0.0 | 0.00 | 0.00 | 0.00 | 83 | 1007.7 |
| 20260504031025 | 1 | 85 | 0.0 | 0.0 | 0.00 | 0.00 | 0.00 | 83 | 1007.7 |
| 20260504030917 | 1 | 85 | 0.0 | 0.0 | 0.00 | 0.00 | 0.00 | 83 | 1007.7 |
| 20260504030840 | 1 | 84 | 0.0 | 0.0 | 0.00 | 0.00 | 0.00 | 83 | 1007.7 |
| 20260504030817 | 1 | 85 | 0.0 | 0.0 | 0.00 | 0.00 | 0.00 | 83 | 1007.7 |
| 20260504030717 | 1 | 85 | 0.0 | 0.0 | 0.00 | 0.00 | 0.00 | 83 | 1007.7 |
| 20260504030643 | 1 | 84 | 0.0 | 0.0 | 0.00 | 0.00 | 0.00 | 82 | 1007.7 |
| 20260504030633 | 1 | 85 | 0.0 | 0.0 | 0.00 | 0.00 | 0.00 | 82 | 1007.7 |
| 20260504030412 | 2 | 85 | 0.0 | 0.0 | 0.00 | 0.00 | 0.00 | 82 | 1007.7 |
| 20260504030336 | 2 | 84 | 0.0 | 0.0 | 0.00 | 0.00 | 0.00 | 82 | 1007.7 |
| 20260504030311 | 2 | 85 | 0.0 | 0.0 | 0.00 | 0.00 | 0.00 | 82 | 1007.7 |
| 20260504030249 | 2 | 85 | 0.0 | 0.0 | 0.00 | 0.00 | 0.00 | 82 | 1007.7 |
| 20260504030238 | 2 | 85 | 0.0 | 0.0 | 0.00 | 0.00 | 0.00 | 82 | 1007.7 |
| 20260504030117 | 2 | 84 | 0.0 | 0.0 | 0.00 | 0.00 | 0.00 | 82 | 1007.7 |
| 20260504030100 | 2 | 85 | 0.0 | 0.0 | 0.00 | 0.00 | 0.00 | 82 | 1007.7 |
| 20260504025806 | 2 | 84 | 0.0 | 0.0 | 0.00 | 0.00 | 0.00 | 82 | 1007.8 |
| 20260504025705 | 2 | 85 | 0.0 | 0.0 | 0.00 | 0.00 | 0.00 | 82 | 1007.7 |
| 20260504025605 | 2 | 84 | 0.0 | 0.0 | 0.00 | 0.00 | 0.00 | 82 | 1007.8 |
| 20260504025507 | 2 | 85 | 0.0 | 0.0 | 0.00 | 0.00 | 0.00 | 81 | 1007.7 |
| 20260504025404 | 2 | 85 | 0.0 | 0.0 | 0.00 | 0.00 | 0.00 | 81 | 1007.8 |
| 20260504025321 | 2 | 85 | 0.0 | 0.0 | 0.00 | 0.00 | 0.00 | 81 | 1007.8 |
| 20260504025305 | 2 | 84 | 0.0 | 0.0 | 0.00 | 0.00 | 0.00 | 81 | 1007.8 |
| 20260504025204 | 2 | 85 | 0.0 | 0.0 | 0.00 | 0.00 | 0.00 | 81 | 1007.7 |
| 20260504025101 | 2 | 85 | 0.0 | 0.0 | 0.00 | 0.00 | 0.00 | 80 | 1007.8 |
| 20260504025000 | 2 | 85 | 0.0 | 0.0 | 0.00 | 0.00 | 0.00 | 80 | 1007.7 |
| 20260504024857 | 2 | 85 | 0.0 | 0.0 | 0.00 | 0.00 | 0.00 | 80 | 1007.7 |
| 20260504024817 | 2 | 85 | 0.0 | 0.0 | 0.00 | 0.00 | 0.00 | 80 | 1007.7 |
| 20260504024757 | 2 | 85 | 0.0 | 0.0 | 0.00 | 0.00 | 0.00 | 80 | 1007.7 |
| 20260504024659 | 2 | 85 | 0.0 | 0.0 | 0.00 | 0.00 | 0.00 | 80 | 1007.8 |
| 20260504024555 | 2 | 84 | 0.0 | 0.0 | 0.00 | 0.00 | 0.00 | 80 | 1007.8 |
| 20260504024454 | 2 | 85 | 0.0 | 0.0 | 0.00 | 0.00 | 0.00 | 80 | 1007.8 |
| 20260504024347 | 2 | 85 | 0.0 | 0.0 | 0.00 | 0.00 | 0.00 | 80 | 1007.7 |
| 20260504024309 | 2 | 84 | 0.0 | 0.0 | 0.00 | 0.00 | 0.00 | 81 | 1007.7 |
| 20260504024247 | 2 | 84 | 0.0 | 0.0 | 0.00 | 0.00 | 0.00 | 81 | 1007.7 |
| 20260504024147 | 2 | 84 | 0.0 | 0.0 | 0.00 | 0.00 | 0.00 | 80 | 1007.8 |
| 20260504024115 | 2 | 84 | 0.0 | 0.0 | 0.00 | 0.00 | 0.00 | 80 | 1007.7 |
| 20260504024106 | 2 | 84 | 0.0 | 0.0 | 0.00 | 0.00 | 0.00 | 80 | 1007.7 |
| 20260504023844 | 2 | 85 | 0.0 | 0.0 | 0.00 | 0.00 | 0.00 | 80 | 1007.7 |
| 20260504023803 | 2 | 84 | 0.0 | 0.0 | 0.00 | 0.00 | 0.00 | 80 | 1007.7 |
| 20260504023744 | 2 | 84 | 0.0 | 0.0 | 0.00 | 0.00 | 0.00 | 80 | 1007.7 |
| 20260504023646 | 2 | 85 | 0.0 | 0.0 | 0.00 | 0.00 | 0.00 | 79 | 1007.7 |
| 20260504023544 | 2 | 84 | 0.0 | 0.0 | 0.00 | 0.00 | 0.00 | 79 | 1007.7 |
| 20260504023442 | 2 | 85 | 0.0 | 0.0 | 0.00 | 0.00 | 0.00 | 79 | 1007.7 |
| 20260504023341 | 2 | 84 | 0.0 | 0.0 | 0.00 | 0.00 | 0.00 | 79 | 1007.7 |
| 20260504023258 | 2 | 84 | 0.0 | 0.0 | 0.00 | 0.00 | 0.00 | 79 | 1007.7 |
| 20260504023238 | 2 | 85 | 0.0 | 0.0 | 0.00 | 0.00 | 0.00 | 79 | 1007.7 |
| 20260504023212 | 2 | 85 | 0.0 | 0.0 | 0.00 | 0.00 | 0.00 | 79 | 1007.7 |
| 20260504023048 | 2 | 84 | 0.0 | 0.0 | 0.00 | 0.00 | 0.00 | 78 | 1007.7 |
| 20260504023034 | 2 | 84 | 0.0 | 0.0 | 0.00 | 0.00 | 0.00 | 78 | 1007.7 |
| 20260504022910 | 2 | 85 | 0.0 | 0.0 | 0.00 | 0.00 | 0.00 | 78 | 1007.7 |
| 20260504022746 | 2 | 85 | 0.0 | 0.0 | 0.00 | 0.00 | 0.00 | 78 | 1007.7 |
| 20260504022529 | 2 | 85 | 0.0 | 0.0 | 0.00 | 0.00 | 0.00 | 78 | 1007.7 |
| 20260504022428 | 2 | 85 | 0.0 | 0.0 | 0.00 | 0.00 | 0.00 | 78 | 1007.7 |
| 20260504022355 | 2 | 84 | 0.0 | 0.0 | 0.00 | 0.00 | 0.00 | 78 | 1007.7 |
| 20260504022345 | 2 | 84 | 0.0 | 0.0 | 0.00 | 0.00 | 0.00 | 78 | 1007.7 |
| 20260504022333 | 2 | 85 | 0.0 | 0.0 | 0.00 | 0.00 | 0.00 | 78 | 1007.7 |
| 20260504022157 | 2 | 85 | 0.0 | 0.0 | 0.00 | 0.00 | 0.00 | 78 | 1007.7 |
| 20260504022039 | 2 | 85 | 0.0 | 0.0 | 0.00 | 0.00 | 0.00 | 79 | 1007.8 |
| 20260504022029 | 2 | 85 | 0.0 | 0.0 | 0.00 | 0.00 | 0.00 | 79 | 1007.7 |
| 20260504022012 | 2 | 84 | 0.0 | 0.0 | 0.00 | 0.00 | 0.00 | 79 | 1007.7 |
| 20260504021721 | 2 | 85 | 0.0 | 0.0 | 0.00 | 0.00 | 0.00 | 79 | 1007.7 |
| 20260504021645 | 2 | 85 | 0.0 | 0.0 | 0.00 | 0.00 | 0.00 | 79 | 1007.7 |
| 20260504021636 | 2 | 84 | 0.0 | 0.0 | 0.00 | 0.00 | 0.00 | 79 | 1007.7 |
| 20260504021419 | 2 | 84 | 0.0 | 0.0 | 0.00 | 0.00 | 0.00 | 79 | 1007.7 |
| 20260504021317 | 2 | 84 | 0.0 | 0.0 | 0.00 | 0.00 | 0.00 | 79 | 1007.7 |
| 20260504021234 | 2 | 85 | 0.0 | 0.0 | 0.00 | 0.00 | 0.00 | 79 | 1007.7 |
| 20260504021214 | 2 | 84 | 0.0 | 0.0 | 0.00 | 0.00 | 0.00 | 79 | 1007.7 |
| 20260504021116 | 2 | 84 | 0.0 | 0.0 | 0.00 | 0.00 | 0.00 | 79 | 1007.7 |
| 20260504021014 | 2 | 85 | 0.0 | 0.0 | 0.00 | 0.00 | 0.00 | 79 | 1007.7 |
| 20260504020951 | 2 | 84 | 0.0 | 0.0 | 0.00 | 0.00 | 0.00 | 78 | 1007.6 |
| 20260504020913 | 2 | 84 | 0.0 | 0.0 | 0.00 | 0.00 | 0.00 | 79 | 1007.7 |
| 20260504020841 | 2 | 84 | 0.0 | 0.0 | 0.00 | 0.00 | 0.00 | 78 | 1007.7 |
| 20260504020706 | 2 | 84 | 0.0 | 0.0 | 0.00 | 0.00 | 0.00 | 78 | 1007.6 |
| 20260504020605 | 2 | 84 | 0.0 | 0.0 | 0.00 | 0.00 | 0.00 | 78 | 1007.6 |
| 20260504020505 | 2 | 84 | 0.0 | 0.0 | 0.00 | 0.00 | 0.00 | 78 | 1007.6 |
| 20260504020405 | 3 | 84 | 0.0 | 0.0 | 0.00 | 0.00 | 0.00 | 78 | 1007.6 |
| 20260504020332 | 3 | 85 | 0.0 | 0.0 | 0.00 | 0.00 | 0.00 | 78 | 1007.6 |
| 20260504020309 | 3 | 84 | 0.0 | 0.0 | 0.00 | 0.00 | 0.00 | 78 | 1007.6 |
| 20260504020058 | 3 | 84 | 0.0 | 0.0 | 0.00 | 0.00 | 0.00 | 78 | 1007.6 |
| 20260504015959 | 3 | 85 | 0.0 | 0.0 | 0.00 | 0.00 | 0.00 | 78 | 1007.6 |
| 20260504015900 | 3 | 84 | 0.0 | 0.0 | 0.00 | 0.00 | 0.00 | 78 | 1007.6 |
| 20260504015755 | 3 | 85 | 0.0 | 0.0 | 0.00 | 0.00 | 0.00 | 77 | 1007.6 |
| 20260504015716 | 3 | 84 | 0.0 | 0.0 | 0.00 | 0.00 | 0.00 | 77 | 1007.6 |
| 20260504015653 | 3 | 85 | 0.0 | 0.0 | 0.00 | 0.00 | 0.00 | 77 | 1007.6 |
| 20260504015643 | 3 | 84 | 0.0 | 0.0 | 0.00 | 0.00 | 0.00 | 76 | 1007.5 |
| 20260504015637 | 3 | 84 | 0.0 | 0.0 | 0.00 | 0.00 | 0.00 | 76 | 1007.5 |
| 20260504015626 | 3 | 84 | 0.0 | 0.0 | 0.00 | 0.00 | 0.00 | 76 | 1007.6 |
| 20260504015321 | 3 | 85 | 0.0 | 0.0 | 0.00 | 0.00 | 0.00 | 76 | 1007.5 |
| 20260504015309 | 3 | 85 | 0.0 | 0.0 | 0.00 | 0.00 | 0.00 | 77 | 1007.5 |
| 20260504015258 | 3 | 84 | 0.0 | 0.0 | 0.00 | 0.00 | 0.00 | 76 | 1007.5 |
| 20260504015046 | 3 | 85 | 0.0 | 0.0 | 0.00 | 0.00 | 0.00 | 76 | 1007.5 |
| 20260504015022 | 3 | 84 | 0.0 | 0.0 | 0.00 | 0.00 | 0.00 | 76 | 1007.5 |
| 20260504015018 | 3 | 85 | 0.0 | 0.0 | 0.00 | 0.00 | 0.00 | 76 | 1007.5 |
| 20260504015006 | 3 | 84 | 0.0 | 0.0 | 0.00 | 0.00 | 0.00 | 76 | 1007.5 |
| 20260504014817 | 3 | 85 | 0.0 | 0.0 | 0.00 | 0.00 | 0.00 | 76 | 1007.5 |
| 20260504014645 | 3 | 84 | 0.0 | 0.0 | 0.00 | 0.00 | 0.00 | 76 | 1007.5 |
| 20260504014547 | 3 | 85 | 0.0 | 0.0 | 0.00 | 0.00 | 0.00 | 76 | 1007.5 |
| 20260504014443 | 3 | 84 | 0.0 | 0.0 | 0.00 | 0.00 | 0.00 | 75 | 1007.5 |
| 20260504014409 | 3 | 85 | 0.0 | 0.0 | 0.00 | 0.00 | 0.00 | 75 | 1007.5 |
| 20260504014359 | 3 | 84 | 0.0 | 0.0 | 0.00 | 0.00 | 0.00 | 75 | 1007.5 |
| 20260504014158 | 3 | 84 | 0.0 | 0.0 | 0.00 | 0.00 | 0.00 | 75 | 1007.5 |
| 20260504014138 | 3 | 85 | 0.0 | 0.0 | 0.00 | 0.00 | 0.00 | 75 | 1007.5 |
| 20260504014102 | 3 | 84 | 0.0 | 0.0 | 0.00 | 0.00 | 0.00 | 75 | 1007.5 |
| 20260504014054 | 3 | 85 | 0.0 | 0.0 | 0.00 | 0.00 | 0.00 | 75 | 1007.5 |
| 20260504013849 | 3 | 85 | 0.0 | 0.0 | 0.00 | 0.00 | 0.00 | 76 | 1007.4 |
| 20260504013842 | 3 | 84 | 0.0 | 0.0 | 0.00 | 0.00 | 0.00 | 75 | 1007.4 |
| 20260504013824 | 3 | 84 | 0.0 | 0.0 | 0.00 | 0.00 | 0.00 | 76 | 1007.4 |
| 20260504013812 | 3 | 84 | 0.0 | 0.0 | 0.00 | 0.00 | 0.00 | 76 | 1007.4 |
| 20260504013538 | 3 | 85 | 0.0 | 0.0 | 0.00 | 0.00 | 0.00 | 76 | 1007.5 |
| 20260504013524 | 3 | 84 | 0.0 | 0.0 | 0.00 | 0.00 | 0.00 | 76 | 1007.4 |
| 20260504013403 | 3 | 84 | 0.0 | 0.0 | 0.00 | 0.00 | 0.00 | 76 | 1007.5 |
| 20260504013235 | 3 | 84 | 0.0 | 0.0 | 0.00 | 0.00 | 0.00 | 76 | 1007.4 |
| 20260504013025 | 3 | 84 | 0.0 | 0.0 | 0.00 | 0.00 | 0.00 | 76 | 1007.4 |
| 20260504012927 | 3 | 84 | 0.0 | 0.0 | 0.00 | 0.00 | 0.00 | 77 | 1007.4 |
| 20260504012824 | 3 | 84 | 0.0 | 0.0 | 0.00 | 0.00 | 0.00 | 77 | 1007.4 |
| 20260504012724 | 3 | 85 | 0.0 | 0.0 | 0.00 | 0.00 | 0.00 | 77 | 1007.4 |
| 20260504012642 | 3 | 85 | 0.0 | 0.0 | 0.00 | 0.00 | 0.00 | 77 | 1007.4 |
| 20260504012621 | 3 | 84 | 0.0 | 0.0 | 0.00 | 0.00 | 0.00 | 77 | 1007.4 |
| 20260504012523 | 3 | 84 | 0.0 | 0.0 | 0.00 | 0.00 | 0.00 | 76 | 1007.4 |
| 20260504012434 | 3 | 84 | 0.0 | 0.0 | 0.00 | 0.00 | 0.00 | 76 | 1007.4 |
| 20260504012429 | 3 | 84 | 0.0 | 0.0 | 0.00 | 0.00 | 0.00 | 76 | 1007.3 |
| 20260504012420 | 3 | 84 | 0.0 | 0.0 | 0.00 | 0.00 | 0.00 | 76 | 1007.4 |
| 20260504012405 | 3 | 84 | 0.0 | 0.0 | 0.00 | 0.00 | 0.00 | 76 | 1007.4 |
| 20260504012112 | 3 | 84 | 0.0 | 0.0 | 0.00 | 0.00 | 0.00 | 76 | 1007.3 |
| 20260504012010 | 3 | 84 | 0.0 | 0.0 | 0.00 | 0.00 | 0.00 | 75 | 1007.3 |
| 20260504011911 | 3 | 84 | 0.0 | 0.0 | 0.00 | 0.00 | 0.00 | 75 | 1007.4 |
| 20260504011813 | 3 | 84 | 0.0 | 0.0 | 0.00 | 0.00 | 0.00 | 75 | 1007.3 |
| 20260504011705 | 3 | 84 | 0.0 | 0.0 | 0.00 | 0.00 | 0.00 | 75 | 1007.3 |
| 20260504011627 | 3 | 84 | 0.0 | 0.0 | 0.00 | 0.00 | 0.00 | 75 | 1007.3 |
| 20260504011604 | 3 | 85 | 0.0 | 0.0 | 0.00 | 0.00 | 0.00 | 75 | 1007.3 |
| 20260504011505 | 3 | 85 | 0.0 | 0.0 | 0.00 | 0.00 | 0.00 | 75 | 1007.3 |
| 20260504011453 | 3 | 84 | 0.0 | 0.0 | 0.00 | 0.00 | 0.00 | 75 | 1007.3 |
| 20260504011449 | 3 | 85 | 0.0 | 0.0 | 0.00 | 0.00 | 0.00 | 74 | 1007.2 |
| 20260504011435 | 3 | 85 | 0.0 | 0.0 | 0.00 | 0.00 | 0.00 | 75 | 1007.3 |
| 20260504011304 | 3 | 84 | 0.0 | 0.0 | 0.00 | 0.00 | 0.00 | 75 | 1007.2 |
| 20260504011250 | 3 | 84 | 0.0 | 0.0 | 0.00 | 0.00 | 0.00 | 74 | 1007.2 |
| 20260504011020 | 3 | 84 | 0.0 | 0.0 | 0.00 | 0.00 | 0.00 | 74 | 1007.2 |
| 20260504010800 | 3 | 84 | 0.0 | 0.0 | 0.00 | 0.00 | 0.00 | 73 | 1007.2 |
| 20260504010657 | 3 | 84 | 0.0 | 0.0 | 0.00 | 0.00 | 0.00 | 73 | 1007.2 |
| 20260504010617 | 3 | 84 | 0.0 | 0.0 | 0.00 | 0.00 | 0.00 | 73 | 1007.1 |
| 20260504010558 | 3 | 84 | 0.0 | 0.0 | 0.00 | 0.00 | 0.00 | 73 | 1007.1 |
| 20260504010458 | 3 | 84 | 0.0 | 0.0 | 0.00 | 0.00 | 0.00 | 73 | 1007.1 |
| 20260504010442 | 4 | 85 | 0.0 | 0.0 | 0.00 | 0.00 | 0.00 | 72 | 1007.1 |
| 20260504010435 | 4 | 84 | 0.0 | 0.0 | 0.00 | 0.00 | 0.00 | 72 | 1007.1 |
| 20260504010423 | 4 | 84 | 0.0 | 0.0 | 0.00 | 0.00 | 0.00 | 73 | 1007.1 |
| 20260504010111 | 4 | 84 | 0.0 | 0.0 | 0.00 | 0.00 | 0.00 | 72 | 1007.1 |
| 20260504010051 | 4 | 84 | 0.0 | 0.0 | 0.00 | 0.00 | 0.00 | 72 | 1007.1 |
| 20260504010041 | 4 | 85 | 0.0 | 0.0 | 0.00 | 0.00 | 0.00 | 72 | 1007.0 |
| 20260504010035 | 4 | 84 | 0.0 | 0.0 | 0.00 | 0.00 | 0.00 | 71 | 1007.1 |
| 20260504010024 | 4 | 84 | 0.0 | 0.0 | 0.00 | 0.00 | 0.00 | 72 | 1007.0 |
| 20260504005646 | 4 | 85 | 0.0 | 0.0 | 0.00 | 0.00 | 0.00 | 71 | 1007.0 |
| 20260504005606 | 4 | 84 | 0.0 | 0.0 | 0.00 | 0.00 | 0.00 | 71 | 1007.0 |
| 20260504005546 | 4 | 84 | 0.0 | 0.0 | 0.00 | 0.00 | 0.00 | 71 | 1007.0 |
| 20260504005446 | 4 | 84 | 0.0 | 0.0 | 0.00 | 0.00 | 0.00 | 71 | 1007.0 |
| 20260504005344 | 4 | 84 | 0.0 | 0.0 | 0.00 | 0.00 | 0.00 | 71 | 1007.0 |
| 20260504005243 | 4 | 84 | 0.0 | 0.0 | 0.00 | 0.00 | 0.00 | 71 | 1007.0 |
| 20260504005137 | 4 | 84 | 0.0 | 0.0 | 0.00 | 0.00 | 0.00 | 70 | 1007.0 |
| 20260504005036 | 5 | 84 | 0.0 | 0.0 | 0.00 | 0.00 | 0.00 | 70 | 1006.9 |
| 20260504004935 | 5 | 84 | 0.0 | 0.0 | 0.00 | 0.00 | 0.00 | 70 | 1006.9 |
| 20260504004901 | 5 | 84 | 0.0 | 0.0 | 0.00 | 0.00 | 0.00 | 70 | 1006.9 |
| 20260504004851 | 5 | 84 | 0.0 | 0.0 | 0.00 | 0.00 | 0.00 | 70 | 1006.9 |
| 20260504004628 | 5 | 85 | 0.0 | 0.0 | 0.00 | 0.00 | 0.00 | 70 | 1006.9 |
| 20260504004530 | 5 | 84 | 0.0 | 0.0 | 0.00 | 0.00 | 0.00 | 70 | 1006.9 |
| 20260504004430 | 5 | 84 | 0.0 | 0.0 | 0.00 | 0.00 | 0.00 | 69 | 1006.9 |
| 20260504004329 | 5 | 85 | 0.0 | 0.0 | 0.00 | 0.00 | 0.00 | 68 | 1006.9 |
| 20260504004230 | 5 | 85 | 0.0 | 0.0 | 0.00 | 0.00 | 0.00 | 68 | 1006.8 |
| 20260504004126 | 5 | 84 | 0.0 | 0.0 | 0.00 | 0.00 | 0.00 | 67 | 1006.8 |
| 20260504004023 | 5 | 84 | 0.0 | 0.0 | 0.00 | 0.00 | 0.00 | 66 | 1006.8 |
| 20260504003923 | 5 | 84 | 0.0 | 0.0 | 0.00 | 0.00 | 0.00 | 66 | 1006.8 |
| 20260504003824 | 5 | 84 | 0.0 | 0.0 | 0.00 | 0.00 | 0.00 | 65 | 1006.8 |
| 20260504003722 | 5 | 84 | 0.0 | 0.0 | 0.00 | 0.00 | 0.00 | 65 | 1006.8 |
| 20260504003625 | 5 | 84 | 0.0 | 0.0 | 0.00 | 0.00 | 0.00 | 65 | 1006.8 |
| 20260504003541 | 5 | 84 | 0.0 | 0.0 | 0.00 | 0.00 | 0.00 | 65 | 1006.8 |
| 20260504003522 | 5 | 84 | 0.0 | 0.0 | 0.00 | 0.00 | 0.00 | 65 | 1006.7 |
| 20260504003422 | 5 | 85 | 0.0 | 0.0 | 0.00 | 0.00 | 0.00 | 64 | 1006.8 |
| 20260504003319 | 5 | 85 | 0.0 | 0.0 | 0.00 | 0.00 | 0.00 | 64 | 1006.8 |
| 20260504003218 | 6 | 84 | 0.0 | 0.0 | 0.00 | 0.00 | 0.00 | 64 | 1006.7 |
| 20260504003149 | 6 | 84 | 0.0 | 0.0 | 0.00 | 0.00 | 0.00 | 63 | 1006.7 |
| 20260504003136 | 6 | 84 | 0.0 | 0.0 | 0.00 | 0.00 | 0.00 | 64 | 1006.7 |
| 20260504003125 | 6 | 84 | 0.0 | 0.0 | 0.00 | 0.00 | 0.00 | 64 | 1006.7 |
| 20260504002918 | 6 | 85 | 0.0 | 0.0 | 0.00 | 0.00 | 0.00 | 63 | 1006.8 |
| 20260504002813 | 6 | 84 | 0.0 | 0.0 | 0.00 | 0.00 | 0.00 | 62 | 1006.7 |
| 20260504002712 | 6 | 85 | 0.0 | 0.0 | 0.00 | 0.00 | 0.00 | 62 | 1006.7 |
| 20260504002606 | 6 | 84 | 0.0 | 0.0 | 0.00 | 0.00 | 0.00 | 62 | 1006.7 |
| 20260504002528 | 6 | 85 | 0.0 | 0.0 | 0.00 | 0.00 | 0.00 | 62 | 1006.7 |
| 20260504002507 | 6 | 84 | 0.0 | 0.0 | 0.00 | 0.00 | 0.00 | 62 | 1006.7 |
| 20260504002408 | 6 | 84 | 0.0 | 0.0 | 0.00 | 0.00 | 0.00 | 61 | 1006.7 |
| 20260504002308 | 6 | 85 | 0.0 | 0.0 | 0.00 | 0.00 | 0.00 | 60 | 1006.7 |
| 20260504002207 | 6 | 84 | 0.0 | 0.0 | 0.00 | 0.00 | 0.00 | 61 | 1006.7 |
| 20260504002131 | 6 | 84 | 0.0 | 0.0 | 0.00 | 0.00 | 0.00 | 60 | 1006.6 |
| 20260504002121 | 6 | 84 | 0.0 | 0.0 | 0.00 | 0.00 | 0.00 | 60 | 1006.7 |
| 20260504002110 | 6 | 84 | 0.0 | 0.0 | 0.00 | 0.00 | 0.00 | 60 | 1006.6 |
| 20260504001859 | 7 | 85 | 0.0 | 0.0 | 0.00 | 0.00 | 0.00 | 59 | 1006.6 |
| 20260504001758 | 7 | 85 | 0.0 | 0.0 | 0.00 | 0.00 | 0.00 | 58 | 1006.6 |
| 20260504001700 | 7 | 84 | 0.0 | 0.0 | 0.00 | 0.00 | 0.00 | 57 | 1006.6 |
| 20260504001558 | 7 | 84 | 0.0 | 0.0 | 0.00 | 0.00 | 0.00 | 57 | 1006.6 |
| 20260504001516 | 7 | 84 | 0.0 | 0.0 | 0.00 | 0.00 | 0.00 | 57 | 1006.6 |
| 20260504001457 | 7 | 85 | 0.0 | 0.0 | 0.00 | 0.00 | 0.00 | 57 | 1006.6 |
| 20260504001358 | 7 | 85 | 0.0 | 1.6 | 0.00 | 0.00 | 0.00 | 57 | 1006.6 |
| 20260504001256 | 7 | 84 | 0.0 | 1.6 | 0.00 | 0.00 | 0.00 | 57 | 1006.6 |
| 20260504001155 | 7 | 84 | 0.0 | 1.6 | 0.00 | 0.00 | 0.00 | 57 | 1006.6 |
| 20260504001049 | 7 | 84 | 0.0 | 1.6 | 0.00 | 0.00 | 0.00 | 56 | 1006.5 |
| 20260504001009 | 7 | 85 | 0.0 | 1.6 | 0.00 | 0.00 | 0.00 | 56 | 1006.6 |
| 20260504000949 | 7 | 85 | 0.0 | 1.6 | 0.00 | 0.00 | 0.00 | 56 | 1006.6 |
| 20260504000847 | 7 | 85 | 0.0 | 1.6 | 0.00 | 0.00 | 0.00 | 56 | 1006.5 |
| 20260504000747 | 7 | 85 | 0.0 | 1.6 | 0.00 | 0.00 | 0.00 | 56 | 1006.5 |
| 20260504000648 | 7 | 85 | 0.0 | 1.6 | 0.00 | 0.00 | 0.00 | 56 | 1006.5 |
| 20260504000542 | 7 | 84 | 0.0 | 1.6 | 0.00 | 0.00 | 0.00 | 55 | 1006.5 |
| 20260504000504 | 7 | 85 | 0.0 | 1.6 | 0.00 | 0.00 | 0.00 | 55 | 1006.5 |
| 20260504000442 | 7 | 84 | 0.0 | 1.6 | 0.00 | 0.00 | 0.00 | 55 | 1006.5 |
| 20260504000409 | 7 | 84 | 0.0 | 0.0 | 0.00 | 0.00 | 0.00 | 55 | 1006.5 |
| 20260504000358 | 7 | 84 | 0.0 | 0.0 | 0.00 | 0.00 | 0.00 | 55 | 1006.5 |
| 20260504000141 | 7 | 85 | 0.0 | 0.0 | 0.00 | 0.00 | 0.00 | 55 | 1006.4 |
| 20260504000041 | 7 | 84 | 0.0 | 1.6 | 0.00 | 0.00 | 0.00 | 54 | 1006.4 |
| 20260503235938 | 7 | 85 | 0.0 | 1.6 | 0.00 | 0.00 | 0.00 | 54 | 1006.4 |
| 20260503235841 | 7 | 85 | 0.0 | 1.6 | 0.00 | 0.00 | 0.00 | 54 | 1006.4 |
| 20260503235737 | 8 | 85 | 0.0 | 1.6 | 0.00 | 0.00 | 0.00 | 54 | 1006.5 |
| 20260503235635 | 8 | 85 | 0.0 | 1.6 | 0.00 | 0.00 | 0.00 | 53 | 1006.4 |
| 20260503235553 | 8 | 84 | 0.0 | 1.6 | 0.00 | 0.00 | 0.00 | 53 | 1006.4 |
| 20260503235542 | 8 | 85 | 0.0 | 1.6 | 0.00 | 0.00 | 0.00 | 53 | 1006.4 |
| 20260503235330 | 8 | 84 | 0.0 | 1.6 | 0.00 | 0.00 | 0.00 | 52 | 1006.3 |
| 20260503235229 | 8 | 84 | 0.0 | 1.6 | 0.00 | 0.00 | 0.00 | 52 | 1006.4 |
| 20260503235130 | 8 | 84 | 0.0 | 1.6 | 0.00 | 0.00 | 0.00 | 53 | 1006.4 |
| 20260503235026 | 8 | 85 | 0.0 | 1.6 | 0.00 | 0.00 | 0.00 | 52 | 1006.4 |
| 20260503234924 | 8 | 84 | 0.0 | 1.6 | 0.00 | 0.00 | 0.00 | 51 | 1006.4 |
| 20260503234826 | 8 | 85 | 0.0 | 3.2 | 0.00 | 0.00 | 0.00 | 51 | 1006.4 |
| 20260503234726 | 8 | 85 | 0.0 | 3.2 | 0.00 | 0.00 | 0.00 | 51 | 1006.4 |
| 20260503234644 | 8 | 84 | 0.0 | 3.2 | 0.00 | 0.00 | 0.00 | 50 | 1006.3 |
| 20260503234635 | 8 | 84 | 0.0 | 3.2 | 0.00 | 0.00 | 0.00 | 51 | 1006.3 |
| 20260503234441 | 8 | 84 | 0.0 | 3.2 | 0.00 | 0.00 | 0.00 | 50 | 1006.3 |
| 20260503234418 | 8 | 85 | 0.0 | 3.2 | 0.00 | 0.00 | 0.00 | 50 | 1006.3 |
| 20260503234317 | 8 | 9 | 0.0 | 3.2 | 0.00 | 0.00 | 0.00 | 51 | 1006.3 |
| 20260503234217 | 8 | 266 | 0.0 | 3.2 | 0.00 | 0.00 | 0.00 | 51 | 1006.3 |
| 20260503234118 | 8 | 267 | 0.0 | 3.2 | 0.00 | 0.00 | 0.00 | 50 | 1006.3 |
| 20260503234018 | 8 | 267 | 0.0 | 3.2 | 0.00 | 0.00 | 0.00 | 50 | 1006.3 |
| 20260503233951 | 8 | 0 | 0.0 | 1.6 | 0.00 | 0.00 | 0.00 | 50 | 1006.3 |
| 20260503233944 | 8 | 267 | 0.0 | 3.2 | 0.00 | 0.00 | 0.00 | 51 | 1006.3 |
| 20260503233934 | 8 | 299 | 0.0 | 3.2 | 0.00 | 0.00 | 0.00 | 51 | 1006.3 |
| 20260503233714 | 8 | 0 | 0.0 | 1.6 | 0.00 | 0.00 | 0.00 | 49 | 1006.3 |
| 20260503233612 | 8 | 0 | 0.0 | 1.6 | 0.00 | 0.00 | 0.00 | 50 | 1006.3 |
| 20260503233504 | 8 | 9 | 0.0 | 1.6 | 0.00 | 0.00 | 0.00 | 49 | 1006.2 |
| 20260503233429 | 8 | 8 | 0.0 | 1.6 | 0.00 | 0.00 | 0.00 | 50 | 1006.2 |
| 20260503233407 | 8 | 9 | 0.0 | 1.6 | 0.00 | 0.00 | 0.00 | 50 | 1006.2 |
| 20260503233305 | 8 | 9 | 0.0 | 1.6 | 0.00 | 0.00 | 0.00 | 50 | 1006.2 |
| 20260503233207 | 8 | 8 | 0.0 | 1.6 | 0.00 | 0.00 | 0.00 | 49 | 1006.2 |
| 20260503233106 | 8 | 8 | 0.0 | 1.6 | 0.00 | 0.00 | 0.00 | 49 | 1006.2 |
| 20260503233001 | 8 | 9 | 0.0 | 3.2 | 0.00 | 0.00 | 0.00 | 49 | 1006.1 |
| 20260503232923 | 8 | 8 | 0.0 | 3.2 | 0.00 | 0.00 | 0.00 | 49 | 1006.1 |
| 20260503232858 | 8 | 8 | 0.0 | 3.2 | 0.00 | 0.00 | 0.00 | 48 | 1006.1 |
| 20260503232825 | 8 | 11 | 0.0 | 3.2 | 0.00 | 0.00 | 0.00 | 49 | 1006.1 |
| 20260503232815 | 8 | 9 | 0.0 | 3.2 | 0.00 | 0.00 | 0.00 | 48 | 1006.1 |
| 20260503232558 | 8 | 30 | 0.0 | 3.2 | 0.00 | 0.00 | 0.00 | 49 | 1006.1 |
| 20260503232455 | 9 | 30 | 0.0 | 3.2 | 0.00 | 0.00 | 0.00 | 49 | 1006.1 |
| 20260503232428 | 9 | 30 | 0.0 | 3.2 | 0.00 | 0.00 | 0.00 | 48 | 1006.1 |
| 20260503232421 | 9 | 30 | 0.0 | 3.2 | 0.00 | 0.00 | 0.00 | 49 | 1006.1 |
| 20260503232412 | 9 | 31 | 0.0 | 3.2 | 0.00 | 0.00 | 0.00 | 48 | 1006.1 |
| 20260503232154 | 9 | 30 | 0.0 | 3.2 | 0.00 | 0.00 | 0.00 | 48 | 1006.1 |
| 20260503232055 | 9 | 36 | 0.0 | 11.3 | 0.00 | 0.00 | 0.00 | 47 | 1006.1 |
| 20260503231952 | 9 | 51 | 0.0 | 11.3 | 0.00 | 0.00 | 0.00 | 48 | 1006.1 |
| 20260503231922 | 9 | 53 | 0.0 | 11.3 | 0.00 | 0.00 | 0.00 | 47 | 1006.1 |
| 20260503231852 | 9 | 53 | 0.0 | 11.3 | 0.00 | 0.00 | 0.00 | 47 | 1006.1 |
| 20260503231752 | 9 | 53 | 0.0 | 11.3 | 0.00 | 0.00 | 0.00 | 47 | 1006.1 |
| 20260503231733 | 9 | 267 | 0.0 | 11.3 | 0.00 | 0.00 | 0.00 | 47 | 1006.1 |
| 20260503231729 | 9 | 267 | 0.0 | 11.3 | 0.00 | 0.00 | 0.00 | 47 | 1006.1 |
| 20260503231716 | 9 | 47 | 0.0 | 11.3 | 0.00 | 0.00 | 0.00 | 47 | 1006.1 |
| 20260503231420 | 9 | 267 | 1.6 | 11.3 | 0.00 | 0.00 | 0.00 | 47 | 1006.0 |
| 20260503231342 | 9 | 355 | 1.6 | 11.3 | 0.00 | 0.00 | 0.00 | 47 | 1006.0 |
| 20260503231242 | 9 | 344 | 1.6 | 11.3 | 0.00 | 0.00 | 0.00 | 46 | 1006.0 |
| 20260503231143 | 9 | 280 | 1.6 | 11.3 | 0.00 | 0.00 | 0.00 | 47 | 1006.0 |
| 20260503231042 | 9 | 312 | 0.0 | 4.8 | 0.00 | 0.00 | 0.00 | 47 | 1006.0 |
| 20260503230938 | 9 | 319 | 1.6 | 4.8 | 0.00 | 0.00 | 0.00 | 48 | 1006.0 |
| 20260503230920 | 9 | 319 | 1.6 | 4.8 | 0.00 | 0.00 | 0.00 | 47 | 1006.0 |
| 20260503230841 | 10 | 319 | 1.6 | 4.8 | 0.00 | 0.00 | 0.00 | 47 | 1006.0 |
| 20260503230741 | 10 | 319 | 1.6 | 4.8 | 0.00 | 0.00 | 0.00 | 47 | 1006.0 |
| 20260503230709 | 10 | 319 | 1.6 | 4.8 | 0.00 | 0.00 | 0.00 | 46 | 1006.0 |
| 20260503230546 | 10 | 312 | 1.6 | 4.8 | 0.00 | 0.00 | 0.00 | 45 | 1006.0 |
| 20260503230419 | 10 | 29 | 1.6 | 6.4 | 0.00 | 0.00 | 0.00 | 45 | 1006.0 |
| 20260503230328 | 10 | 293 | 1.6 | 6.4 | 0.00 | 0.00 | 0.00 | 45 | 1005.9 |
| 20260503230229 | 10 | 296 | 1.6 | 8.0 | 0.00 | 0.00 | 0.00 | 46 | 1006.0 |
| 20260503230129 | 10 | 280 | 1.6 | 8.0 | 0.00 | 0.00 | 0.00 | 45 | 1006.0 |
| 20260503230059 | 10 | 13 | 1.6 | 8.0 | 0.00 | 0.00 | 0.00 | 45 | 1005.9 |
| 20260503230052 | 10 | 285 | 1.6 | 8.0 | 0.00 | 0.00 | 0.00 | 45 | 1005.9 |
| 20260503230045 | 10 | 285 | 1.6 | 8.0 | 0.00 | 0.00 | 0.00 | 44 | 1005.9 |
| 20260503230037 | 10 | 66 | 1.6 | 8.0 | 0.00 | 0.00 | 0.00 | 45 | 1005.9 |
| 20260503230013 | 10 | 58 | 1.6 | 8.0 | 0.00 | 0.00 | 0.00 | 45 | 1005.9 |
| 20260503225522 | 10 | 285 | 1.6 | 8.0 | 0.00 | 0.00 | 0.00 | 44 | 1005.9 |
| 20260503225451 | 10 | 64 | 1.6 | 8.0 | 0.00 | 0.00 | 0.00 | 44 | 1005.9 |
| 20260503225435 | 10 | 51 | 1.6 | 8.0 | 0.00 | 0.00 | 0.00 | 44 | 1005.9 |
| 20260503225217 | 10 | 351 | 1.6 | 9.7 | 0.00 | 0.00 | 0.00 | 44 | 1005.8 |
| 20260503225142 | 10 | 281 | 1.6 | 14.5 | 0.00 | 0.00 | 0.00 | 44 | 1005.9 |
| 20260503225133 | 10 | 283 | 1.6 | 9.7 | 0.00 | 0.00 | 0.00 | 44 | 1005.8 |
| 20260503224914 | 10 | 266 | 1.6 | 14.5 | 0.00 | 0.00 | 0.00 | 44 | 1005.8 |
| 20260503224836 | 10 | 266 | 1.6 | 14.5 | 0.00 | 0.00 | 0.00 | 45 | 1005.8 |
| 20260503224712 | 10 | 294 | 1.6 | 14.5 | 0.00 | 0.00 | 0.00 | 44 | 1005.7 |
| 20260503224704 | 10 | 46 | 1.6 | 14.5 | 0.00 | 0.00 | 0.00 | 43 | 1005.7 |
| 20260503224651 | 10 | 294 | 1.6 | 14.5 | 0.00 | 0.00 | 0.00 | 44 | 1005.8 |
| 20260503224518 | 10 | 44 | 1.6 | 14.5 | 0.00 | 0.00 | 0.00 | 43 | 1005.7 |
| 20260503224311 | 10 | 309 | 1.6 | 14.5 | 0.00 | 0.00 | 0.00 | 44 | 1005.8 |
| 20260503224233 | 10 | 282 | 1.6 | 14.5 | 0.00 | 0.00 | 0.00 | 43 | 1005.7 |
| 20260503224224 | 10 | 267 | 1.6 | 14.5 | 0.00 | 0.00 | 0.00 | 44 | 1005.7 |
| 20260503224004 | 10 | 274 | 1.6 | 8.0 | 0.00 | 0.00 | 0.00 | 44 | 1005.7 |
| 20260503223938 | 10 | 291 | 3.2 | 14.5 | 0.00 | 0.00 | 0.00 | 43 | 1005.6 |
| 20260503223928 | 10 | 274 | 3.2 | 14.5 | 0.00 | 0.00 | 0.00 | 44 | 1005.7 |
| 20260503223918 | 10 | 271 | 3.2 | 14.5 | 0.00 | 0.00 | 0.00 | 44 | 1005.7 |
| 20260503223704 | 10 | 307 | 3.2 | 14.5 | 0.00 | 0.00 | 0.00 | 43 | 1005.6 |
| 20260503223602 | 10 | 299 | 3.2 | 14.5 | 0.00 | 0.00 | 0.00 | 43 | 1005.7 |
| 20260503223459 | 10 | 229 | 3.2 | 14.5 | 0.00 | 0.00 | 0.00 | 43 | 1005.7 |
| 20260503223413 | 10 | 281 | 3.2 | 14.5 | 0.00 | 0.00 | 0.00 | 44 | 1005.8 |
| 20260503223355 | 10 | 281 | 3.2 | 14.5 | 0.00 | 0.00 | 0.00 | 44 | 1005.8 |
| 20260503223255 | 10 | 293 | 3.2 | 14.5 | 0.00 | 0.00 | 0.00 | 44 | 1005.7 |
| 20260503223157 | 10 | 316 | 3.2 | 14.5 | 0.00 | 0.00 | 0.00 | 44 | 1005.7 |
| 20260503223057 | 10 | 359 | 3.2 | 14.5 | 0.00 | 0.00 | 0.00 | 44 | 1005.7 |
| 20260503222954 | 10 | 222 | 3.2 | 14.5 | 0.00 | 0.00 | 0.00 | 43 | 1005.7 |
| 20260503222915 | 10 | 276 | 3.2 | 9.7 | 0.00 | 0.00 | 0.00 | 43 | 1005.6 |
| 20260503222847 | 10 | 273 | 3.2 | 9.7 | 0.00 | 0.00 | 0.00 | 43 | 1005.6 |
| 20260503222747 | 10 | 319 | 3.2 | 9.7 | 0.00 | 0.00 | 0.00 | 43 | 1005.7 |
| 20260503222647 | 10 | 255 | 1.6 | 9.7 | 0.00 | 0.00 | 0.00 | 43 | 1005.6 |
| 20260503222549 | 10 | 291 | 1.6 | 9.7 | 0.00 | 0.00 | 0.00 | 43 | 1005.6 |
| 20260503222511 | 10 | 36 | 3.2 | 22.5 | 0.00 | 0.00 | 0.00 | 43 | 1005.6 |
| 20260503222502 | 10 | 96 | 3.2 | 11.3 | 0.00 | 0.00 | 0.00 | 43 | 1005.7 |
| 20260503222448 | 10 | 276 | 3.2 | 11.3 | 0.00 | 0.00 | 0.00 | 43 | 1005.6 |
| 20260503222440 | 10 | 339 | 3.2 | 11.3 | 0.00 | 0.00 | 0.00 | 43 | 1005.6 |
| 20260503222202 | 10 | 58 | 3.2 | 22.5 | 0.00 | 0.00 | 0.00 | 43 | 1005.5 |
| 20260503222020 | 10 | 278 | 3.2 | 22.5 | 0.00 | 0.00 | 0.00 | 43 | 1005.5 |
| 20260503222007 | 10 | 50 | 3.2 | 22.5 | 0.00 | 0.00 | 0.00 | 42 | 1005.5 |
| 20260503221956 | 10 | 84 | 3.2 | 22.5 | 0.00 | 0.00 | 0.00 | 43 | 1005.5 |
| 20260503221744 | 10 | 47 | 4.8 | 22.5 | 0.00 | 0.00 | 0.00 | 43 | 1005.5 |
| 20260503221710 | 10 | 304 | 4.8 | 22.5 | 0.00 | 0.00 | 0.00 | 43 | 1005.5 |
| 20260503221658 | 10 | 53 | 4.8 | 22.5 | 0.00 | 0.00 | 0.00 | 42 | 1005.5 |
| 20260503221441 | 10 | 23 | 4.8 | 22.5 | 0.00 | 0.00 | 0.00 | 42 | 1005.4 |
| 20260503221415 | 10 | 325 | 4.8 | 22.5 | 0.00 | 0.00 | 0.00 | 42 | 1005.4 |
| 20260503221341 | 10 | 280 | 4.8 | 22.5 | 0.00 | 0.00 | 0.00 | 42 | 1005.4 |
| 20260503221309 | 10 | 330 | 4.8 | 16.1 | 0.00 | 0.00 | 0.00 | 42 | 1005.4 |
| 20260503221257 | 10 | 44 | 4.8 | 16.1 | 0.00 | 0.00 | 0.00 | 42 | 1005.4 |
| 20260503221041 | 10 | 51 | 4.8 | 16.1 | 0.00 | 0.00 | 0.00 | 41 | 1005.4 |
| 20260503220942 | 10 | 60 | 4.8 | 16.1 | 0.00 | 0.00 | 0.00 | 42 | 1005.5 |
| 20260503220915 | 10 | 53 | 4.8 | 16.1 | 0.00 | 0.00 | 0.00 | 42 | 1005.5 |
| 20260503220838 | 10 | 291 | 4.8 | 16.1 | 0.00 | 0.00 | 0.00 | 43 | 1005.5 |
| 20260503220739 | 10 | 297 | 4.8 | 14.5 | 0.00 | 0.00 | 0.00 | 43 | 1005.5 |
| 20260503220636 | 10 | 305 | 4.8 | 14.5 | 0.00 | 0.00 | 0.00 | 42 | 1005.5 |
| 20260503220602 | 10 | 231 | 4.8 | 17.7 | 0.00 | 0.00 | 0.00 | 42 | 1005.4 |
| 20260503220553 | 10 | 298 | 4.8 | 14.5 | 0.00 | 0.00 | 0.00 | 41 | 1005.4 |
| 20260503220413 | 10 | 271 | 4.8 | 17.7 | 0.00 | 0.00 | 0.00 | 43 | 1005.3 |
| 20260503220336 | 10 | 349 | 4.8 | 17.7 | 0.00 | 0.00 | 0.00 | 43 | 1005.3 |
| 20260503220234 | 10 | 297 | 4.8 | 17.7 | 0.00 | 0.00 | 0.00 | 41 | 1005.3 |
| 20260503220134 | 10 | 38 | 4.8 | 17.7 | 0.00 | 0.00 | 0.00 | 42 | 1005.3 |
| 20260503220033 | 10 | 305 | 4.8 | 17.7 | 0.00 | 0.00 | 0.00 | 42 | 1005.3 |
| 20260503215934 | 10 | 312 | 3.2 | 17.7 | 0.00 | 0.00 | 0.00 | 42 | 1005.4 |
| 20260503215916 | 10 | 300 | 3.2 | 17.7 | 0.00 | 0.00 | 0.00 | 42 | 1005.4 |
| 20260503215832 | 10 | 33 | 3.2 | 17.7 | 0.00 | 0.00 | 0.00 | 41 | 1005.4 |
| 20260503215732 | 10 | 297 | 3.2 | 17.7 | 0.00 | 0.00 | 0.00 | 41 | 1005.4 |
| 20260503215708 | 10 | 297 | 1.6 | 11.3 | 0.00 | 0.00 | 0.00 | 41 | 1005.3 |
| 20260503215701 | 10 | 294 | 1.6 | 9.7 | 0.00 | 0.00 | 0.00 | 42 | 1005.3 |
| 20260503215650 | 10 | 308 | 3.2 | 17.7 | 0.00 | 0.00 | 0.00 | 41 | 1005.3 |
| 20260503215635 | 10 | 280 | 3.2 | 17.7 | 0.00 | 0.00 | 0.00 | 41 | 1005.4 |
| 20260503215328 | 10 | 58 | 1.6 | 9.7 | 0.00 | 0.00 | 0.00 | 42 | 1005.3 |
| 20260503215226 | 10 | 81 | 1.6 | 9.7 | 0.00 | 0.00 | 0.00 | 42 | 1005.3 |
| 20260503215128 | 10 | 270 | 1.6 | 9.7 | 0.00 | 0.00 | 0.00 | 42 | 1005.3 |
| 20260503215026 | 10 | 288 | 3.2 | 9.7 | 0.00 | 0.00 | 0.00 | 42 | 1005.2 |
| 20260503214926 | 10 | 210 | 3.2 | 9.7 | 0.00 | 0.00 | 0.00 | 43 | 1005.3 |
| 20260503214901 | 10 | 211 | 3.2 | 9.7 | 0.00 | 0.00 | 0.00 | 43 | 1005.3 |
| 20260503214849 | 10 | 327 | 3.2 | 19.3 | 0.00 | 0.00 | 0.00 | 43 | 1005.2 |
| 20260503214839 | 10 | 299 | 3.2 | 19.3 | 0.00 | 0.00 | 0.00 | 42 | 1005.3 |
| 20260503214544 | 10 | 34 | 3.2 | 19.3 | 0.00 | 0.00 | 0.00 | 42 | 1005.2 |
| 20260503214536 | 10 | 191 | 3.2 | 19.3 | 0.00 | 0.00 | 0.00 | 42 | 1005.3 |
| 20260503214357 | 10 | 308 | 3.2 | 19.3 | 0.00 | 0.00 | 0.00 | 42 | 1005.2 |
| 20260503214318 | 10 | 82 | 3.2 | 19.3 | 0.00 | 0.00 | 0.00 | 41 | 1005.2 |
| 20260503214239 | 10 | 64 | 3.2 | 19.3 | 0.00 | 0.00 | 0.00 | 42 | 1005.2 |
| 20260503214230 | 10 | 71 | 3.2 | 19.3 | 0.00 | 0.00 | 0.00 | 42 | 1005.3 |
| 20260503214011 | 10 | 291 | 3.2 | 19.3 | 0.00 | 0.00 | 0.00 | 40 | 1005.2 |
| 20260503213911 | 10 | 278 | 3.2 | 19.3 | 0.00 | 0.00 | 0.00 | 40 | 1005.2 |
| 20260503213851 | 10 | 249 | 3.2 | 19.3 | 0.00 | 0.00 | 0.00 | 41 | 1005.2 |
| 20260503213810 | 10 | 46 | 3.2 | 12.9 | 0.00 | 0.00 | 0.00 | 41 | 1005.1 |
| 20260503213708 | 10 | 47 | 3.2 | 12.9 | 0.00 | 0.00 | 0.00 | 41 | 1005.2 |
| 20260503213606 | 10 | 297 | 3.2 | 12.9 | 0.00 | 0.00 | 0.00 | 42 | 1005.2 |
| 20260503213507 | 10 | 38 | 3.2 | 12.9 | 0.00 | 0.00 | 0.00 | 42 | 1005.2 |
| 20260503213409 | 10 | 309 | 3.2 | 11.3 | 0.00 | 0.00 | 0.00 | 41 | 1005.1 |
| 20260503213344 | 10 | 280 | 3.2 | 11.3 | 0.00 | 0.00 | 0.00 | 42 | 1005.1 |
| 20260503213304 | 10 | 294 | 3.2 | 11.3 | 0.00 | 0.00 | 0.00 | 42 | 1005.1 |
| 20260503213203 | 10 | 55 | 3.2 | 20.9 | 0.00 | 0.00 | 0.00 | 41 | 1005.1 |
| 20260503213056 | 10 | 283 | 3.2 | 20.9 | 0.00 | 0.00 | 0.00 | 41 | 1005.1 |
| 20260503212958 | 10 | 321 | 3.2 | 20.9 | 0.00 | 0.00 | 0.00 | 42 | 1005.2 |
| 20260503212858 | 10 | 273 | 3.2 | 20.9 | 0.00 | 0.00 | 0.00 | 42 | 1005.1 |
| 20260503212840 | 10 | 39 | 3.2 | 20.9 | 0.00 | 0.00 | 0.00 | 42 | 1005.1 |
| 20260503212757 | 10 | 280 | 3.2 | 20.9 | 0.00 | 0.00 | 0.00 | 44 | 1005.1 |
| 20260503212723 | 10 | 51 | 4.8 | 20.9 | 0.00 | 0.00 | 0.00 | 42 | 1005.1 |
| 20260503212715 | 10 | 302 | 3.2 | 20.9 | 0.00 | 0.00 | 0.00 | 42 | 1005.0 |
| 20260503212711 | 10 | 271 | 3.2 | 19.3 | 0.00 | 0.00 | 0.00 | 43 | 1005.0 |
| 20260503212703 | 10 | 86 | 3.2 | 20.9 | 0.00 | 0.00 | 0.00 | 42 | 1005.2 |
| 20260503212646 | 10 | 351 | 3.2 | 20.9 | 0.00 | 0.00 | 0.00 | 43 | 1005.1 |
| 20260503212631 | 10 | 64 | 3.2 | 20.9 | 0.00 | 0.00 | 0.00 | 44 | 1005.1 |
| 20260503212213 | 10 | 82 | 4.8 | 16.1 | 0.00 | 0.00 | 0.00 | 42 | 1005.0 |
| 20260503212203 | 10 | 40 | 4.8 | 12.9 | 0.00 | 0.00 | 0.00 | 42 | 1005.0 |
| 20260503212015 | 10 | 299 | 3.2 | 16.1 | 0.00 | 0.00 | 0.00 | 43 | 1005.0 |
| 20260503212005 | 10 | 349 | 4.8 | 16.1 | 0.00 | 0.00 | 0.00 | 42 | 1005.2 |
| 20260503211824 | 10 | 43 | 3.2 | 16.1 | 0.00 | 0.00 | 0.00 | 42 | 1005.1 |
| 20260503211811 | 10 | 288 | 3.2 | 16.1 | 0.00 | 0.00 | 0.00 | 43 | 1005.0 |
| 20260503211802 | 10 | 39 | 3.2 | 16.1 | 0.00 | 0.00 | 0.00 | 42 | 1005.1 |
| 20260503211605 | 10 | 32 | 3.2 | 16.1 | 0.00 | 0.00 | 0.00 | 42 | 1005.0 |
| 20260503211556 | 10 | 325 | 3.2 | 16.1 | 0.00 | 0.00 | 0.00 | 42 | 1005.0 |
| 20260503211338 | 10 | 77 | 3.2 | 16.1 | 0.00 | 0.00 | 0.00 | 42 | 1004.9 |
| 20260503211320 | 10 | 81 | 3.2 | 16.1 | 0.00 | 0.00 | 0.00 | 42 | 1004.9 |
| 20260503211239 | 10 | 294 | 3.2 | 16.1 | 0.00 | 0.00 | 0.00 | 42 | 1004.9 |
| 20260503211138 | 10 | 288 | 3.2 | 11.3 | 0.00 | 0.00 | 0.00 | 42 | 1004.9 |
| 20260503211032 | 10 | 125 | 3.2 | 11.3 | 0.00 | 0.00 | 0.00 | 42 | 1004.9 |
| 20260503211001 | 10 | 18 | 3.2 | 11.3 | 0.00 | 0.00 | 0.00 | 43 | 1004.9 |
| 20260503210952 | 10 | 297 | 3.2 | 11.3 | 0.00 | 0.00 | 0.00 | 43 | 1005.0 |
| 20260503210813 | 10 | 53 | 3.2 | 11.3 | 0.00 | 0.00 | 0.00 | 43 | 1004.8 |
| 20260503210732 | 10 | 271 | 3.2 | 11.3 | 0.00 | 0.00 | 0.00 | 42 | 1004.8 |
| 20260503210634 | 10 | 300 | 1.6 | 11.3 | 0.00 | 0.00 | 0.00 | 43 | 1004.8 |
| 20260503210605 | 10 | 44 | 1.6 | 11.3 | 0.00 | 0.00 | 0.00 | 42 | 1004.7 |
| 20260503210600 | 10 | 46 | 1.6 | 11.3 | 0.00 | 0.00 | 0.00 | 42 | 1004.7 |
| 20260503210550 | 10 | 307 | 1.6 | 11.3 | 0.00 | 0.00 | 0.00 | 43 | 1004.7 |
| 20260503210535 | 10 | 299 | 1.6 | 11.3 | 0.00 | 0.00 | 0.00 | 43 | 1004.7 |
| 20260503210226 | 10 | 88 | 1.6 | 11.3 | 0.00 | 0.00 | 0.00 | 42 | 1004.7 |
| 20260503210127 | 10 | 236 | 1.6 | 11.3 | 0.00 | 0.00 | 0.00 | 44 | 1004.7 |
| 20260503210026 | 10 | 50 | 1.6 | 11.3 | 0.00 | 0.00 | 0.00 | 44 | 1004.7 |
| 20260503205924 | 10 | 30 | 1.6 | 11.3 | 0.00 | 0.00 | 0.00 | 44 | 1004.7 |
| 20260503205827 | 10 | 37 | 1.6 | 11.3 | 0.00 | 0.00 | 0.00 | 43 | 1004.6 |
| 20260503205802 | 10 | 36 | 1.6 | 11.3 | 0.00 | 0.00 | 0.00 | 43 | 1004.6 |
| 20260503205722 | 10 | 36 | 1.6 | 11.3 | 0.00 | 0.00 | 0.00 | 43 | 1004.6 |
| 20260503205623 | 10 | 33 | 1.6 | 11.3 | 0.00 | 0.00 | 0.00 | 43 | 1004.7 |
| 20260503205515 | 10 | 281 | 1.6 | 11.3 | 0.00 | 0.00 | 0.00 | 42 | 1004.7 |
| 20260503205415 | 10 | 39 | 1.6 | 11.3 | 0.00 | 0.00 | 0.00 | 42 | 1004.6 |
| 20260503205315 | 10 | 338 | 3.2 | 12.9 | 0.00 | 0.00 | 0.00 | 42 | 1004.6 |
| 20260503205256 | 10 | 316 | 3.2 | 12.9 | 0.00 | 0.00 | 0.00 | 42 | 1004.6 |
| 20260503205216 | 11 | 291 | 3.2 | 14.5 | 0.00 | 0.00 | 0.00 | 42 | 1004.6 |